Time,TemperatureF,DewpointF,PressureIn,WindDirection,WindDirectionDegrees,WindSpeedMPH,WindSpeedGustMPH,Humidity,HourlyPrecipIn,Conditions,Clouds,dailyrainin,SoftwareType,DateUTC
2013-04-12 00:00:00,49.6,47.4,29.62,NW,325,4.0,7.0,92,0.00,,,1.09,Wunderground v.1.15,2013-04-12 04:00:00,
2013-04-12 00:02:00,49.6,47.4,29.62,WNW,282,5.0,11.0,92,0.00,,,0.00,Wunderground v.1.15,2013-04-12 04:02:00,
2013-04-12 00:08:00,49.4,47.2,29.62,WNW,296,6.0,11.0,92,0.00,,,0.00,Wunderground v.1.15,2013-04-12 04:08:00,
2013-04-12 00:10:00,49.3,47.1,29.62,SW,215,7.0,7.0,92,0.00,,,0.00,Wunderground v.1.15,2013-04-12 04:10:00,
2013-04-12 00:12:00,49.3,47.1,29.62,West,263,7.0,15.0,92,0.00,,,0.00,Wunderground v.1.15,2013-04-12 04:12:00,
2013-04-12 00:13:00,49.3,47.1,29.62,NW,308,7.0,15.0,92,0.00,,,0.00,Wunderground v.1.15,2013-04-12 04:13:00,
2013-04-12 00:15:00,49.1,46.9,29.62,West,275,8.0,15.0,92,0.00,,,0.00,Wunderground v.1.15,2013-04-12 04:15:00,
2013-04-12 00:19:00,49.0,46.8,29.62,WSW,258,7.0,15.0,92,0.00,,,0.00,Wunderground v.1.15,2013-04-12 04:19:00,
2013-04-12 00:21:00,49.0,46.8,29.62,WNW,296,7.0,7.0,92,0.00,,,0.00,Wunderground v.1.15,2013-04-12 04:21:00,
2013-04-12 00:22:00,49.0,46.8,29.62,West,281,7.0,12.0,92,0.00,,,0.00,Wunderground v.1.15,2013-04-12 04:22:00,
2013-04-12 00:24:00,48.8,46.6,29.62,West,268,6.0,12.0,92,0.00,,,0.00,Wunderground v.1.15,2013-04-12 04:24:00,
2013-04-12 00:28:00,48.5,46.3,29.62,WNW,299,6.0,12.0,92,0.00,,,0.00,Wunderground v.1.15,2013-04-12 04:28:00,
2013-04-12 00:31:00,48.4,46.2,29.63,West,275,6.0,6.0,92,0.00,,,0.00,Wunderground v.1.15,2013-04-12 04:31:00,
2013-04-12 00:34:00,48.2,46.0,29.63,WSW,247,5.0,7.0,92,0.00,,,0.00,Wunderground v.1.15,2013-04-12 04:34:00,
2013-04-12 00:35:00,48.2,45.7,29.63,West,278,6.0,7.0,91,0.00,,,0.00,Wunderground v.1.15,2013-04-12 04:35:00,
2013-04-12 00:37:00,48.1,45.9,29.63,NW,305,5.0,7.0,92,0.00,,,0.00,Wunderground v.1.15,2013-04-12 04:37:00,
2013-04-12 00:39:00,47.9,45.7,29.63,NW,318,5.0,7.0,92,0.00,,,0.00,Wunderground v.1.15,2013-04-12 04:39:00,
2013-04-12 00:42:00,47.9,45.7,29.63,WNW,294,5.0,11.0,92,0.00,,,0.00,Wunderground v.1.15,2013-04-12 04:42:00,
2013-04-12 00:43:00,47.9,45.7,29.63,WNW,302,5.0,11.0,92,0.00,,,0.00,Wunderground v.1.15,2013-04-12 04:43:00,
2013-04-12 00:44:00,47.8,45.6,29.63,West,263,5.0,12.0,92,0.00,,,0.00,Wunderground v.1.15,2013-04-12 04:44:00,
2013-04-12 00:47:00,47.6,45.4,29.64,West,281,6.0,12.0,92,0.00,,,0.00,Wunderground v.1.15,2013-04-12 04:47:00,
2013-04-12 00:49:00,47.5,45.3,29.64,NW,312,6.0,12.0,92,0.00,,,0.01,Wunderground v.1.15,2013-04-12 04:49:00,
2013-04-12 00:50:00,47.3,44.8,29.64,NW,325,7.0,7.0,91,0.00,,,0.01,Wunderground v.1.15,2013-04-12 04:50:00,
2013-04-12 00:56:00,46.6,44.1,29.64,NW,320,8.0,13.0,91,0.00,,,0.01,Wunderground v.1.15,2013-04-12 04:56:00,
2013-04-12 00:59:00,46.3,43.8,29.64,WNW,291,7.0,13.0,91,0.00,,,0.01,Wunderground v.1.15,2013-04-12 04:59:00,
2013-04-12 01:00:00,46.2,43.7,29.66,West,264,7.0,9.0,91,0.00,,,0.01,Wunderground v.1.15,2013-04-12 05:00:00,
2013-04-12 01:01:00,46.2,43.7,29.66,WNW,298,7.0,9.0,91,0.00,,,0.01,Wunderground v.1.15,2013-04-12 05:01:00,
2013-04-12 01:04:00,45.9,43.4,29.66,NW,311,7.0,12.0,91,0.00,,,0.01,Wunderground v.1.15,2013-04-12 05:04:00,
2013-04-12 01:06:00,45.7,43.2,29.66,NW,309,7.0,12.0,91,0.00,,,0.01,Wunderground v.1.15,2013-04-12 05:06:00,
2013-04-12 01:08:00,45.7,43.2,29.66,WNW,298,7.0,12.0,91,0.00,,,0.01,Wunderground v.1.15,2013-04-12 05:08:00,
2013-04-12 01:10:00,45.6,43.1,29.66,WNW,295,7.0,7.0,91,0.00,,,0.01,Wunderground v.1.15,2013-04-12 05:10:00,
2013-04-12 01:13:00,45.6,43.1,29.66,WNW,302,7.0,7.0,91,0.00,,,0.01,Wunderground v.1.15,2013-04-12 05:13:00,
2013-04-12 01:14:00,45.6,43.1,29.66,WNW,289,6.0,7.0,91,0.00,,,0.01,Wunderground v.1.15,2013-04-12 05:14:00,
2013-04-12 01:16:00,45.6,43.1,29.66,West,277,6.0,7.0,91,0.00,,,0.01,Wunderground v.1.15,2013-04-12 05:16:00,
2013-04-12 01:17:00,45.6,43.1,29.66,WNW,299,6.0,7.0,91,0.00,,,0.01,Wunderground v.1.15,2013-04-12 05:17:00,
2013-04-12 01:20:00,45.4,42.9,29.66,NW,319,5.0,5.0,91,0.00,,,0.01,Wunderground v.1.15,2013-04-12 05:20:00,
2013-04-12 01:21:00,45.4,42.9,29.66,WNW,292,5.0,5.0,91,0.00,,,0.01,Wunderground v.1.15,2013-04-12 05:21:00,
2013-04-12 01:23:00,45.4,42.9,29.66,NW,320,5.0,5.0,91,0.00,,,0.01,Wunderground v.1.15,2013-04-12 05:23:00,
2013-04-12 01:25:00,45.6,43.1,29.66,WNW,298,4.0,5.0,91,0.00,,,0.01,Wunderground v.1.15,2013-04-12 05:25:00,
2013-04-12 01:26:00,45.6,43.1,29.66,NW,319,4.0,5.0,91,0.00,,,0.01,Wunderground v.1.15,2013-04-12 05:26:00,
2013-04-12 01:28:00,45.4,42.9,29.66,WNW,284,3.0,5.0,91,0.00,,,0.01,Wunderground v.1.15,2013-04-12 05:28:00,
2013-04-12 01:29:00,45.4,42.9,29.66,WNW,284,3.0,5.0,91,0.00,,,0.01,Wunderground v.1.15,2013-04-12 05:29:00,
2013-04-12 01:32:00,45.6,43.1,29.67,West,280,4.0,10.0,91,0.00,,,0.01,Wunderground v.1.15,2013-04-12 05:32:00,
2013-04-12 01:33:00,45.6,43.1,29.67,West,277,4.0,10.0,91,0.00,,,0.01,Wunderground v.1.15,2013-04-12 05:33:00,
2013-04-12 01:34:00,45.6,43.1,29.67,WNW,301,4.0,10.0,91,0.00,,,0.01,Wunderground v.1.15,2013-04-12 05:34:00,
2013-04-12 01:39:00,45.6,42.8,29.67,NW,309,4.0,10.0,90,0.00,,,0.01,Wunderground v.1.15,2013-04-12 05:39:00,
2013-04-12 01:40:00,45.6,42.8,29.67,West,275,4.0,6.0,90,0.00,,,0.01,Wunderground v.1.15,2013-04-12 05:40:00,
2013-04-12 01:41:00,45.6,42.8,29.67,NW,306,4.0,6.0,90,0.00,,,0.01,Wunderground v.1.15,2013-04-12 05:41:00,
2013-04-12 01:44:00,45.4,42.6,29.67,West,263,4.0,6.0,90,0.00,,,0.01,Wunderground v.1.15,2013-04-12 05:44:00,
2013-04-12 01:45:00,45.4,42.6,29.67,West,265,3.0,6.0,90,0.00,,,0.01,Wunderground v.1.15,2013-04-12 05:45:00,
2013-04-12 01:48:00,45.4,42.6,29.67,WNW,299,5.0,6.0,90,0.00,,,0.01,Wunderground v.1.15,2013-04-12 05:48:00,
2013-04-12 01:50:00,45.3,42.2,29.67,West,280,5.0,5.0,89,0.00,,,0.01,Wunderground v.1.15,2013-04-12 05:50:00,
2013-04-12 01:53:00,45.3,42.2,29.67,WNW,291,6.0,12.0,89,0.00,,,0.01,Wunderground v.1.15,2013-04-12 05:53:00,
2013-04-12 01:55:00,45.3,42.0,29.67,NW,309,6.0,12.0,88,0.00,,,0.01,Wunderground v.1.15,2013-04-12 05:55:00,
2013-04-12 01:56:00,45.1,41.8,29.67,WNW,291,7.0,12.0,88,0.00,,,0.01,Wunderground v.1.15,2013-04-12 05:56:00,
2013-04-12 02:01:00,45.0,41.1,29.68,West,272,7.0,11.0,86,0.00,,,0.01,Wunderground v.1.15,2013-04-12 06:01:00,
2013-04-12 02:03:00,44.8,40.9,29.68,NW,306,7.0,11.0,86,0.00,,,0.01,Wunderground v.1.15,2013-04-12 06:03:00,
2013-04-12 02:04:00,44.7,40.5,29.68,NW,323,8.0,11.0,85,0.00,,,0.01,Wunderground v.1.15,2013-04-12 06:04:00,
2013-04-12 02:07:00,44.6,40.4,29.68,NW,323,8.0,11.0,85,0.00,,,0.01,Wunderground v.1.15,2013-04-12 06:07:00,
2013-04-12 02:09:00,44.6,40.1,29.68,NW,306,8.0,13.0,84,0.00,,,0.01,Wunderground v.1.15,2013-04-12 06:09:00,
2013-04-12 02:11:00,44.4,39.9,29.68,West,278,8.0,9.0,84,0.00,,,0.01,Wunderground v.1.15,2013-04-12 06:11:00,
2013-04-12 02:12:00,44.4,39.9,29.68,NNW,336,8.0,9.0,84,0.00,,,0.01,Wunderground v.1.15,2013-04-12 06:12:00,
2013-04-12 02:13:00,44.3,39.8,29.68,WNW,289,8.0,9.0,84,0.00,,,0.01,Wunderground v.1.15,2013-04-12 06:13:00,
2013-04-12 02:17:00,44.1,39.6,29.68,WNW,294,7.0,9.0,84,0.00,,,0.01,Wunderground v.1.15,2013-04-12 06:17:00,
2013-04-12 02:18:00,44.1,39.9,29.68,West,260,7.0,9.0,85,0.00,,,0.01,Wunderground v.1.15,2013-04-12 06:18:00,
2013-04-12 02:19:00,44.1,39.9,29.68,NW,311,6.0,12.0,85,0.00,,,0.01,Wunderground v.1.15,2013-04-12 06:19:00,
2013-04-12 02:20:00,44.0,39.5,29.68,NNW,328,6.0,8.0,84,0.00,,,0.01,Wunderground v.1.15,2013-04-12 06:20:00,
2013-04-12 02:22:00,43.8,39.3,29.68,WNW,296,6.0,8.0,84,0.00,,,0.01,Wunderground v.1.15,2013-04-12 06:22:00,
2013-04-12 02:28:00,43.6,38.8,29.68,NW,315,7.0,14.0,83,0.00,,,0.01,Wunderground v.1.15,2013-04-12 06:28:00,
2013-04-12 02:29:00,43.4,38.6,29.68,NW,320,7.0,14.0,83,0.00,,,0.01,Wunderground v.1.15,2013-04-12 06:29:00,
2013-04-12 02:30:00,43.4,38.6,29.68,WNW,282,7.0,7.0,83,0.00,,,0.01,Wunderground v.1.15,2013-04-12 06:30:00,
2013-04-12 02:31:00,43.4,38.3,29.68,West,280,7.0,7.0,82,0.00,,,0.01,Wunderground v.1.15,2013-04-12 06:31:00,
2013-04-12 02:35:00,43.1,37.7,29.68,West,274,7.0,10.0,81,0.00,,,0.01,Wunderground v.1.15,2013-04-12 06:35:00,
2013-04-12 02:36:00,43.0,37.6,29.68,WNW,287,7.0,10.0,81,0.00,,,0.01,Wunderground v.1.15,2013-04-12 06:36:00,
2013-04-12 02:40:00,42.8,37.4,29.68,WNW,296,6.0,6.0,81,0.00,,,0.01,Wunderground v.1.15,2013-04-12 06:40:00,
2013-04-12 02:41:00,42.8,37.4,29.68,NW,305,6.0,12.0,81,0.00,,,0.01,Wunderground v.1.15,2013-04-12 06:41:00,
2013-04-12 02:43:00,42.6,36.5,29.68,West,274,7.0,13.0,79,0.00,,,0.01,Wunderground v.1.15,2013-04-12 06:43:00,
2013-04-12 02:46:00,42.3,35.9,29.68,WNW,302,8.0,17.0,78,0.00,,,0.01,Wunderground v.1.15,2013-04-12 06:46:00,
2013-04-12 02:47:00,42.3,35.9,29.68,WNW,302,8.0,17.0,78,0.00,,,0.01,Wunderground v.1.15,2013-04-12 06:47:00,
2013-04-12 02:50:00,42.0,35.0,29.68,WNW,298,9.0,9.0,76,0.00,,,0.01,Wunderground v.1.15,2013-04-12 06:50:00,
2013-04-12 02:51:00,42.0,35.0,29.68,West,265,9.0,9.0,76,0.00,,,0.01,Wunderground v.1.15,2013-04-12 06:51:00,
2013-04-12 02:53:00,41.8,34.8,29.68,WNW,287,8.0,9.0,76,0.00,,,0.01,Wunderground v.1.15,2013-04-12 06:53:00,
2013-04-12 02:54:00,41.7,34.4,29.68,West,281,8.0,9.0,75,0.00,,,0.01,Wunderground v.1.15,2013-04-12 06:54:00,
2013-04-12 02:58:00,41.4,34.1,29.68,WNW,295,8.0,12.0,75,0.00,,,0.01,Wunderground v.1.15,2013-04-12 06:58:00,
2013-04-12 02:59:00,41.4,34.1,29.68,WNW,298,8.0,12.0,75,0.00,,,0.01,Wunderground v.1.15,2013-04-12 06:59:00,
2013-04-12 03:00:00,41.4,34.4,29.68,NW,311,7.0,7.0,76,0.00,,,0.01,Wunderground v.1.15,2013-04-12 07:00:00,
2013-04-12 03:02:00,41.3,34.3,29.68,NW,309,6.0,14.0,76,0.00,,,0.01,Wunderground v.1.15,2013-04-12 07:02:00,
2013-04-12 03:04:00,41.1,34.1,29.68,NW,312,5.0,14.0,76,0.00,,,0.01,Wunderground v.1.15,2013-04-12 07:04:00,
2013-04-12 03:06:00,41.1,34.1,29.68,WNW,289,5.0,14.0,76,0.00,,,0.01,Wunderground v.1.15,2013-04-12 07:06:00,
2013-04-12 03:08:00,41.0,34.0,29.68,WNW,301,4.0,14.0,76,0.00,,,0.01,Wunderground v.1.15,2013-04-12 07:08:00,
2013-04-12 03:13:00,40.8,34.1,29.68,West,281,4.0,12.0,77,0.00,,,0.01,Wunderground v.1.15,2013-04-12 07:13:00,
2013-04-12 03:15:00,40.8,33.8,29.69,NW,316,5.0,12.0,76,0.00,,,0.01,Wunderground v.1.15,2013-04-12 07:15:00,
2013-04-12 03:17:00,40.7,33.4,29.69,WNW,288,5.0,12.0,75,0.00,,,0.01,Wunderground v.1.15,2013-04-12 07:17:00,
2013-04-12 03:22:00,40.7,33.7,29.69,NW,313,6.0,6.0,76,0.00,,,0.01,Wunderground v.1.15,2013-04-12 07:22:00,
2013-04-12 03:23:00,40.7,33.7,29.69,NW,304,6.0,6.0,76,0.00,,,0.01,Wunderground v.1.15,2013-04-12 07:23:00,
2013-04-12 03:26:00,40.6,33.3,29.69,WNW,302,4.0,8.0,75,0.00,,,0.01,Wunderground v.1.15,2013-04-12 07:26:00,
2013-04-12 03:28:00,40.6,33.3,29.69,West,277,5.0,11.0,75,0.00,,,0.01,Wunderground v.1.15,2013-04-12 07:28:00,
2013-04-12 03:29:00,40.6,33.3,29.69,WNW,301,5.0,11.0,75,0.00,,,0.01,Wunderground v.1.15,2013-04-12 07:29:00,
2013-04-12 03:30:00,40.6,33.3,29.69,West,263,5.0,5.0,75,0.00,,,0.01,Wunderground v.1.15,2013-04-12 07:30:00,
2013-04-12 03:32:00,40.6,33.3,29.69,WNW,298,4.0,5.0,75,0.00,,,0.01,Wunderground v.1.15,2013-04-12 07:32:00,
2013-04-12 03:34:00,40.6,33.6,29.69,WNW,291,4.0,5.0,76,0.00,,,0.01,Wunderground v.1.15,2013-04-12 07:34:00,
2013-04-12 03:35:00,40.4,33.4,29.69,West,281,4.0,5.0,76,0.00,,,0.01,Wunderground v.1.15,2013-04-12 07:35:00,
2013-04-12 03:36:00,40.4,33.4,29.69,West,274,3.0,5.0,76,0.00,,,0.01,Wunderground v.1.15,2013-04-12 07:36:00,
2013-04-12 03:39:00,40.4,33.8,29.69,NW,322,2.0,5.0,77,0.00,,,0.01,Wunderground v.1.15,2013-04-12 07:39:00,
2013-04-12 03:42:00,40.3,33.7,29.69,NW,311,2.0,3.0,77,0.00,,,0.01,Wunderground v.1.15,2013-04-12 07:42:00,
2013-04-12 03:45:00,40.3,33.7,29.69,NW,323,2.0,3.0,77,0.00,,,0.01,Wunderground v.1.15,2013-04-12 07:45:00,
2013-04-12 03:46:00,40.1,33.1,29.69,NW,306,2.0,3.0,76,0.00,,,0.01,Wunderground v.1.15,2013-04-12 07:46:00,
2013-04-12 03:47:00,40.1,33.1,29.69,NW,306,2.0,3.0,76,0.00,,,0.01,Wunderground v.1.15,2013-04-12 07:47:00,
2013-04-12 03:51:00,40.1,33.5,29.69,WNW,285,2.0,5.0,77,0.00,,,0.01,Wunderground v.1.15,2013-04-12 07:51:00,
2013-04-12 03:52:00,40.1,33.5,29.69,West,281,2.0,5.0,77,0.00,,,0.01,Wunderground v.1.15,2013-04-12 07:52:00,
2013-04-12 03:54:00,40.1,33.5,29.69,NNW,330,2.0,5.0,77,0.00,,,0.01,Wunderground v.1.15,2013-04-12 07:54:00,
2013-04-12 03:55:00,40.1,33.5,29.69,WNW,289,2.0,5.0,77,0.00,,,0.01,Wunderground v.1.15,2013-04-12 07:55:00,
2013-04-12 03:59:00,40.1,33.5,29.69,WNW,288,2.0,5.0,77,0.00,,,0.01,Wunderground v.1.15,2013-04-12 07:59:00,
2013-04-12 04:00:00,40.1,33.5,29.68,WNW,295,2.0,2.0,77,0.00,,,0.01,Wunderground v.1.15,2013-04-12 08:00:00,
2013-04-12 04:01:00,40.1,33.5,29.68,WNW,295,2.0,2.0,77,0.00,,,0.01,Wunderground v.1.15,2013-04-12 08:01:00,
2013-04-12 04:03:00,40.1,33.5,29.68,WNW,288,2.0,2.0,77,0.00,,,0.01,Wunderground v.1.15,2013-04-12 08:03:00,
2013-04-12 04:05:00,40.1,33.5,29.68,WNW,294,2.0,2.0,77,0.00,,,0.01,Wunderground v.1.15,2013-04-12 08:05:00,
2013-04-12 04:06:00,40.1,33.5,29.68,WNW,291,2.0,2.0,77,0.00,,,0.01,Wunderground v.1.15,2013-04-12 08:06:00,
2013-04-12 04:09:00,40.3,33.7,29.68,WNW,284,1.0,2.0,77,0.00,,,0.01,Wunderground v.1.15,2013-04-12 08:09:00,
2013-04-12 04:11:00,40.3,33.7,29.68,West,280,1.0,1.0,77,0.00,,,0.01,Wunderground v.1.15,2013-04-12 08:11:00,
2013-04-12 04:14:00,40.3,33.7,29.68,WNW,285,1.0,4.0,77,0.00,,,0.01,Wunderground v.1.15,2013-04-12 08:14:00,
2013-04-12 04:15:00,40.3,33.7,29.70,WNW,284,1.0,4.0,77,0.00,,,0.01,Wunderground v.1.15,2013-04-12 08:15:00,
2013-04-12 04:17:00,40.3,33.7,29.70,WSW,247,1.0,4.0,77,0.00,,,0.01,Wunderground v.1.15,2013-04-12 08:17:00,
2013-04-12 04:18:00,40.3,33.7,29.70,West,278,1.0,4.0,77,0.00,,,0.01,Wunderground v.1.15,2013-04-12 08:18:00,
2013-04-12 04:20:00,40.4,33.8,29.70,West,280,1.0,1.0,77,0.00,,,0.01,Wunderground v.1.15,2013-04-12 08:20:00,
2013-04-12 04:22:00,40.4,33.8,29.70,WNW,302,1.0,1.0,77,0.00,,,0.01,Wunderground v.1.15,2013-04-12 08:22:00,
2013-04-12 04:24:00,40.4,33.8,29.70,WNW,302,0.0,1.0,77,0.00,,,0.01,Wunderground v.1.15,2013-04-12 08:24:00,
2013-04-12 04:26:00,40.4,33.8,29.70,WNW,302,0.0,1.0,77,0.00,,,0.01,Wunderground v.1.15,2013-04-12 08:26:00,
2013-04-12 04:28:00,40.4,33.8,29.70,WNW,302,0.0,1.0,77,0.00,,,0.01,Wunderground v.1.15,2013-04-12 08:28:00,
2013-04-12 04:32:00,40.4,33.8,29.70,WNW,285,0.0,3.0,77,0.00,,,0.01,Wunderground v.1.15,2013-04-12 08:32:00,
2013-04-12 04:34:00,40.4,34.1,29.70,West,280,0.0,3.0,78,0.00,,,0.01,Wunderground v.1.15,2013-04-12 08:34:00,
2013-04-12 04:35:00,40.4,34.1,29.70,WNW,284,0.0,3.0,78,0.00,,,0.01,Wunderground v.1.15,2013-04-12 08:35:00,
2013-04-12 04:37:00,40.4,34.1,29.70,West,267,1.0,3.0,78,0.00,,,0.01,Wunderground v.1.15,2013-04-12 08:37:00,
2013-04-12 04:38:00,40.4,34.1,29.70,West,274,1.0,3.0,78,0.00,,,0.01,Wunderground v.1.15,2013-04-12 08:38:00,
2013-04-12 04:41:00,40.4,34.1,29.70,West,261,1.0,2.0,78,0.00,,,0.01,Wunderground v.1.15,2013-04-12 08:41:00,
2013-04-12 04:43:00,40.4,34.1,29.70,WSW,256,1.0,5.0,78,0.00,,,0.01,Wunderground v.1.15,2013-04-12 08:43:00,
2013-04-12 04:45:00,40.4,34.1,29.70,West,274,2.0,5.0,78,0.00,,,0.01,Wunderground v.1.15,2013-04-12 08:45:00,
2013-04-12 04:46:00,40.4,34.1,29.70,WNW,284,2.0,5.0,78,0.00,,,0.01,Wunderground v.1.15,2013-04-12 08:46:00,
2013-04-12 04:48:00,40.4,34.1,29.70,West,274,2.0,7.0,78,0.00,,,0.01,Wunderground v.1.15,2013-04-12 08:48:00,
2013-04-12 04:49:00,40.4,34.1,29.70,West,267,2.0,7.0,78,0.00,,,0.01,Wunderground v.1.15,2013-04-12 08:49:00,
2013-04-12 04:51:00,40.4,33.8,29.70,West,275,3.0,9.0,77,0.00,,,0.01,Wunderground v.1.15,2013-04-12 08:51:00,
2013-04-12 04:54:00,40.4,33.8,29.70,West,263,4.0,9.0,77,0.00,,,0.01,Wunderground v.1.15,2013-04-12 08:54:00,
2013-04-12 04:56:00,40.4,33.8,29.70,West,263,4.0,9.0,77,0.00,,,0.01,Wunderground v.1.15,2013-04-12 08:56:00,
2013-04-12 04:57:00,40.4,33.8,29.70,WNW,282,4.0,9.0,77,0.00,,,0.01,Wunderground v.1.15,2013-04-12 08:57:00,
2013-04-12 04:59:00,40.4,33.8,29.70,WSW,254,4.0,9.0,77,0.00,,,0.01,Wunderground v.1.15,2013-04-12 08:59:00,
2013-04-12 05:00:00,40.4,33.4,29.71,WSW,246,5.0,6.0,76,0.00,,,0.01,Wunderground v.1.15,2013-04-12 09:00:00,
2013-04-12 05:05:00,40.6,33.6,29.71,WSW,254,5.0,7.0,76,0.00,,,0.01,Wunderground v.1.15,2013-04-12 09:05:00,
2013-04-12 05:06:00,40.6,33.6,29.71,WSW,256,4.0,7.0,76,0.00,,,0.01,Wunderground v.1.15,2013-04-12 09:06:00,
2013-04-12 05:07:00,40.6,33.6,29.71,WSW,250,4.0,7.0,76,0.00,,,0.01,Wunderground v.1.15,2013-04-12 09:07:00,
2013-04-12 05:09:00,40.6,33.6,29.71,West,271,4.0,7.0,76,0.00,,,0.01,Wunderground v.1.15,2013-04-12 09:09:00,
2013-04-12 05:10:00,40.6,33.6,29.71,West,264,4.0,4.0,76,0.00,,,0.01,Wunderground v.1.15,2013-04-12 09:10:00,
2013-04-12 05:12:00,40.6,33.6,29.71,West,274,3.0,4.0,76,0.00,,,0.01,Wunderground v.1.15,2013-04-12 09:12:00,
2013-04-12 05:14:00,40.6,33.6,29.71,WNW,295,2.0,4.0,76,0.00,,,0.01,Wunderground v.1.15,2013-04-12 09:14:00,
2013-04-12 05:16:00,40.6,33.6,29.71,West,270,3.0,4.0,76,0.00,,,0.01,Wunderground v.1.15,2013-04-12 09:16:00,
2013-04-12 05:17:00,40.6,33.6,29.71,WSW,251,3.0,4.0,76,0.00,,,0.01,Wunderground v.1.15,2013-04-12 09:17:00,
2013-04-12 05:19:00,40.6,33.6,29.71,WNW,299,2.0,4.0,76,0.00,,,0.01,Wunderground v.1.15,2013-04-12 09:19:00,
2013-04-12 05:20:00,40.6,34.0,29.71,WNW,299,2.0,2.0,77,0.00,,,0.01,Wunderground v.1.15,2013-04-12 09:20:00,
2013-04-12 05:24:00,40.3,33.3,29.71,West,270,2.0,3.0,76,0.00,,,0.01,Wunderground v.1.15,2013-04-12 09:24:00,
2013-04-12 05:25:00,40.3,33.3,29.71,West,264,2.0,3.0,76,0.00,,,0.01,Wunderground v.1.15,2013-04-12 09:25:00,
2013-04-12 05:29:00,40.1,33.1,29.71,NW,311,3.0,7.0,76,0.00,,,0.01,Wunderground v.1.15,2013-04-12 09:29:00,
2013-04-12 05:30:00,40.1,33.1,29.71,WSW,257,3.0,6.0,76,0.00,,,0.01,Wunderground v.1.15,2013-04-12 09:30:00,
2013-04-12 05:33:00,40.0,32.7,29.71,West,271,4.0,6.0,75,0.00,,,0.01,Wunderground v.1.15,2013-04-12 09:33:00,
2013-04-12 05:35:00,40.0,32.7,29.71,West,268,4.0,6.0,75,0.00,,,0.01,Wunderground v.1.15,2013-04-12 09:35:00,
2013-04-12 05:37:00,39.8,32.5,29.71,WNW,287,4.0,6.0,75,0.00,,,0.01,Wunderground v.1.15,2013-04-12 09:37:00,
2013-04-12 05:38:00,39.8,32.5,29.71,West,260,4.0,6.0,75,0.00,,,0.01,Wunderground v.1.15,2013-04-12 09:38:00,
2013-04-12 05:39:00,39.8,32.5,29.71,West,270,3.0,6.0,75,0.00,,,0.01,Wunderground v.1.15,2013-04-12 09:39:00,
2013-04-12 05:42:00,39.7,32.1,29.71,WNW,291,3.0,10.0,74,0.00,,,0.01,Wunderground v.1.15,2013-04-12 09:42:00,
2013-04-12 05:43:00,39.7,32.1,29.71,WNW,302,4.0,10.0,74,0.00,,,0.01,Wunderground v.1.15,2013-04-12 09:43:00,
2013-04-12 05:45:00,39.7,32.1,29.73,West,263,3.0,10.0,74,0.00,,,0.01,Wunderground v.1.15,2013-04-12 09:45:00,
2013-04-12 05:46:00,39.7,32.1,29.73,West,280,3.0,10.0,74,0.00,,,0.01,Wunderground v.1.15,2013-04-12 09:46:00,
2013-04-12 05:49:00,39.6,32.0,29.73,West,272,4.0,10.0,74,0.00,,,0.01,Wunderground v.1.15,2013-04-12 09:49:00,
2013-04-12 05:52:00,39.4,31.8,29.73,West,277,4.0,8.0,74,0.00,,,0.01,Wunderground v.1.15,2013-04-12 09:52:00,
2013-04-12 05:54:00,39.4,31.5,29.73,WNW,294,4.0,8.0,73,0.00,,,0.01,Wunderground v.1.15,2013-04-12 09:54:00,
2013-04-12 05:56:00,39.4,31.5,29.73,SW,233,4.0,8.0,73,0.00,,,0.01,Wunderground v.1.15,2013-04-12 09:56:00,
2013-04-12 05:57:00,39.4,30.8,29.73,WSW,240,5.0,8.0,71,0.00,,,0.01,Wunderground v.1.15,2013-04-12 09:57:00,
2013-04-12 05:58:00,39.4,30.4,29.73,West,274,5.0,16.0,70,0.00,,,0.01,Wunderground v.1.15,2013-04-12 09:58:00,
2013-04-12 06:00:00,39.4,29.7,29.73,West,275,6.0,6.0,68,0.00,,,0.01,Wunderground v.1.15,2013-04-12 10:00:00,
2013-04-12 06:03:00,39.4,29.7,29.73,West,274,6.0,6.0,68,0.00,,,0.01,Wunderground v.1.15,2013-04-12 10:03:00,
2013-04-12 06:04:00,39.4,29.7,29.73,WNW,282,6.0,6.0,68,0.00,,,0.01,Wunderground v.1.15,2013-04-12 10:04:00,
2013-04-12 06:09:00,39.3,30.3,29.73,WNW,287,4.0,6.0,70,0.00,,,0.01,Wunderground v.1.15,2013-04-12 10:09:00,
2013-04-12 06:10:00,39.3,30.3,29.73,WNW,287,3.0,3.0,70,0.00,,,0.01,Wunderground v.1.15,2013-04-12 10:10:00,
2013-04-12 06:14:00,39.1,30.5,29.73,West,264,2.0,3.0,71,0.00,,,0.01,Wunderground v.1.15,2013-04-12 10:14:00,
2013-04-12 06:15:00,39.1,31.2,29.74,West,264,2.0,3.0,73,0.00,,,0.01,Wunderground v.1.15,2013-04-12 10:15:00,
2013-04-12 06:17:00,39.1,31.2,29.74,SW,226,1.0,3.0,73,0.00,,,0.01,Wunderground v.1.15,2013-04-12 10:17:00,
2013-04-12 06:19:00,39.0,31.4,29.74,WNW,287,2.0,7.0,74,0.00,,,0.01,Wunderground v.1.15,2013-04-12 10:19:00,
2013-04-12 06:21:00,38.8,31.2,29.74,WSW,247,3.0,3.0,74,0.00,,,0.01,Wunderground v.1.15,2013-04-12 10:21:00,
2013-04-12 06:22:00,38.8,31.2,29.74,West,275,2.0,5.0,74,0.00,,,0.01,Wunderground v.1.15,2013-04-12 10:22:00,
2013-04-12 06:23:00,38.8,31.2,29.74,WSW,246,3.0,5.0,74,0.00,,,0.01,Wunderground v.1.15,2013-04-12 10:23:00,
2013-04-12 06:29:00,38.7,30.4,29.74,West,260,4.0,5.0,72,0.00,,,0.01,Wunderground v.1.15,2013-04-12 10:29:00,
2013-04-12 06:30:00,38.7,30.4,29.75,WNW,287,3.0,3.0,72,0.00,,,0.01,Wunderground v.1.15,2013-04-12 10:30:00,
2013-04-12 06:31:00,38.7,30.4,29.75,West,272,3.0,3.0,72,0.00,,,0.01,Wunderground v.1.15,2013-04-12 10:31:00,
2013-04-12 06:32:00,38.7,30.8,29.75,West,272,3.0,3.0,73,0.00,,,0.01,Wunderground v.1.15,2013-04-12 10:32:00,
2013-04-12 06:37:00,38.4,30.5,29.75,West,275,2.0,5.0,73,0.00,,,0.01,Wunderground v.1.15,2013-04-12 10:37:00,
2013-04-12 06:38:00,38.4,30.8,29.75,West,277,2.0,5.0,74,0.00,,,0.01,Wunderground v.1.15,2013-04-12 10:38:00,
2013-04-12 06:39:00,38.4,30.8,29.75,West,277,2.0,5.0,74,0.00,,,0.01,Wunderground v.1.15,2013-04-12 10:39:00,
2013-04-12 06:42:00,38.3,30.7,29.75,West,278,1.0,2.0,74,0.00,,,0.01,Wunderground v.1.15,2013-04-12 10:42:00,
2013-04-12 06:43:00,38.3,30.7,29.75,West,278,1.0,2.0,74,0.00,,,0.01,Wunderground v.1.15,2013-04-12 10:43:00,
2013-04-12 06:47:00,38.1,30.5,29.75,West,270,1.0,2.0,74,0.00,,,0.01,Wunderground v.1.15,2013-04-12 10:47:00,
2013-04-12 06:48:00,38.1,30.5,29.75,West,263,1.0,2.0,74,0.00,,,0.01,Wunderground v.1.15,2013-04-12 10:48:00,
2013-04-12 06:52:00,38.0,30.4,29.75,West,265,1.0,3.0,74,0.00,,,0.01,Wunderground v.1.15,2013-04-12 10:52:00,
2013-04-12 06:53:00,38.0,30.4,29.75,West,264,1.0,3.0,74,0.00,,,0.01,Wunderground v.1.15,2013-04-12 10:53:00,
2013-04-12 06:54:00,37.8,30.3,29.75,West,270,1.0,3.0,74,0.00,,,0.01,Wunderground v.1.15,2013-04-12 10:54:00,
2013-04-12 06:56:00,37.8,30.6,29.75,WNW,282,1.0,3.0,75,0.00,,,0.01,Wunderground v.1.15,2013-04-12 10:56:00,
2013-04-12 06:59:00,37.7,30.5,29.75,West,261,1.0,3.0,75,0.00,,,0.01,Wunderground v.1.15,2013-04-12 10:59:00,
2013-04-12 07:00:00,37.7,30.5,29.76,SW,236,1.0,1.0,75,0.00,,,0.01,Wunderground v.1.15,2013-04-12 11:00:00,
2013-04-12 07:01:00,37.7,30.5,29.76,SW,236,1.0,1.0,75,0.00,,,0.01,Wunderground v.1.15,2013-04-12 11:01:00,
2013-04-12 07:03:00,37.7,30.5,29.76,West,261,1.0,1.0,75,0.00,,,0.01,Wunderground v.1.15,2013-04-12 11:03:00,
2013-04-12 07:05:00,37.5,30.3,29.76,West,264,0.0,1.0,75,0.00,,,0.01,Wunderground v.1.15,2013-04-12 11:05:00,
2013-04-12 07:06:00,37.5,30.3,29.76,West,270,0.0,1.0,75,0.00,,,0.01,Wunderground v.1.15,2013-04-12 11:06:00,
2013-04-12 07:09:00,37.5,30.3,29.76,WSW,239,1.0,1.0,75,0.00,,,0.01,Wunderground v.1.15,2013-04-12 11:09:00,
2013-04-12 07:12:00,37.4,30.2,29.76,SW,222,0.0,1.0,75,0.00,,,0.01,Wunderground v.1.15,2013-04-12 11:12:00,
2013-04-12 07:13:00,37.4,30.2,29.76,West,271,0.0,1.0,75,0.00,,,0.01,Wunderground v.1.15,2013-04-12 11:13:00,
2013-04-12 07:15:00,37.4,30.2,29.76,West,265,1.0,2.0,75,0.00,,,0.01,Wunderground v.1.15,2013-04-12 11:15:00,
2013-04-12 07:18:00,37.4,30.2,29.76,West,265,1.0,2.0,75,0.00,,,0.01,Wunderground v.1.15,2013-04-12 11:18:00,
2013-04-12 07:20:00,37.3,30.1,29.76,West,267,1.0,1.0,75,0.00,,,0.01,Wunderground v.1.15,2013-04-12 11:20:00,
2013-04-12 07:21:00,37.3,30.1,29.76,West,265,1.0,1.0,75,0.00,,,0.01,Wunderground v.1.15,2013-04-12 11:21:00,
2013-04-12 07:25:00,37.3,30.1,29.76,West,271,0.0,1.0,75,0.00,,,0.01,Wunderground v.1.15,2013-04-12 11:25:00,
2013-04-12 07:27:00,37.3,30.1,29.76,West,271,0.0,1.0,75,0.00,,,0.01,Wunderground v.1.15,2013-04-12 11:27:00,
2013-04-12 07:30:00,37.1,29.9,29.77,West,270,0.0,0.0,75,0.00,,,0.01,Wunderground v.1.15,2013-04-12 11:30:00,
2013-04-12 07:33:00,37.1,29.9,29.77,WNW,289,0.0,0.0,75,0.00,,,0.01,Wunderground v.1.15,2013-04-12 11:33:00,
2013-04-12 07:34:00,37.1,29.9,29.77,West,280,0.0,1.0,75,0.00,,,0.01,Wunderground v.1.15,2013-04-12 11:34:00,
2013-04-12 07:36:00,37.1,29.9,29.77,West,280,0.0,1.0,75,0.00,,,0.01,Wunderground v.1.15,2013-04-12 11:36:00,
2013-04-12 07:39:00,37.3,30.1,29.77,WNW,285,0.0,2.0,75,0.00,,,0.01,Wunderground v.1.15,2013-04-12 11:39:00,
2013-04-12 07:40:00,37.3,30.1,29.77,West,281,0.0,0.0,75,0.00,,,0.01,Wunderground v.1.15,2013-04-12 11:40:00,
2013-04-12 07:43:00,37.3,30.1,29.77,West,281,0.0,0.0,75,0.00,,,0.01,Wunderground v.1.15,2013-04-12 11:43:00,
2013-04-12 07:44:00,37.3,30.1,29.77,SW,230,0.0,6.0,75,0.00,,,0.01,Wunderground v.1.15,2013-04-12 11:44:00,
2013-04-12 07:45:00,37.3,30.1,29.78,West,268,1.0,6.0,75,0.00,,,0.01,Wunderground v.1.15,2013-04-12 11:45:00,
2013-04-12 07:49:00,37.4,29.9,29.78,SW,222,1.0,6.0,74,0.00,,,0.01,Wunderground v.1.15,2013-04-12 11:49:00,
2013-04-12 07:50:00,37.5,30.0,29.78,WSW,240,1.0,1.0,74,0.00,,,0.01,Wunderground v.1.15,2013-04-12 11:50:00,
2013-04-12 07:54:00,37.7,30.2,29.78,WSW,241,2.0,2.0,74,0.00,,,0.01,Wunderground v.1.15,2013-04-12 11:54:00,
2013-04-12 07:55:00,37.7,30.2,29.78,SW,224,2.0,3.0,74,0.00,,,0.01,Wunderground v.1.15,2013-04-12 11:55:00,
2013-04-12 07:56:00,37.7,30.2,29.78,SW,233,2.0,6.0,74,0.00,,,0.01,Wunderground v.1.15,2013-04-12 11:56:00,
2013-04-12 07:57:00,37.8,30.3,29.78,SW,215,2.0,6.0,74,0.00,,,0.01,Wunderground v.1.15,2013-04-12 11:57:00,
2013-04-12 08:00:00,38.0,30.4,29.78,SSW,206,2.0,5.0,74,0.00,,,0.01,Wunderground v.1.15,2013-04-12 12:00:00,
2013-04-12 08:02:00,38.0,30.4,29.78,SSW,205,3.0,6.0,74,0.00,,,0.01,Wunderground v.1.15,2013-04-12 12:02:00,
2013-04-12 08:03:00,38.0,30.4,29.78,SSW,206,3.0,7.0,74,0.00,,,0.01,Wunderground v.1.15,2013-04-12 12:03:00,
2013-04-12 08:08:00,38.3,30.7,29.78,SW,234,4.0,7.0,74,0.00,,,0.01,Wunderground v.1.15,2013-04-12 12:08:00,
2013-04-12 08:10:00,38.4,30.8,29.78,SSW,210,4.0,6.0,74,0.00,,,0.01,Wunderground v.1.15,2013-04-12 12:10:00,
2013-04-12 08:14:00,38.7,31.1,29.78,SSW,208,4.0,6.0,74,0.00,,,0.01,Wunderground v.1.15,2013-04-12 12:14:00,
2013-04-12 08:15:00,38.7,30.8,29.79,SW,230,3.0,6.0,73,0.00,,,0.01,Wunderground v.1.15,2013-04-12 12:15:00,
2013-04-12 08:19:00,38.8,30.9,29.79,SW,232,4.0,8.0,73,0.00,,,0.01,Wunderground v.1.15,2013-04-12 12:19:00,
2013-04-12 08:21:00,39.0,31.1,29.79,SSW,208,4.0,6.0,73,0.00,,,0.01,Wunderground v.1.15,2013-04-12 12:21:00,
2013-04-12 08:23:00,39.0,31.1,29.79,WSW,254,4.0,6.0,73,0.00,,,0.01,Wunderground v.1.15,2013-04-12 12:23:00,
2013-04-12 08:26:00,39.1,31.2,29.79,SW,215,5.0,6.0,73,0.00,,,0.01,Wunderground v.1.15,2013-04-12 12:26:00,
2013-04-12 08:27:00,39.1,31.2,29.79,SW,215,5.0,6.0,73,0.00,,,0.01,Wunderground v.1.15,2013-04-12 12:27:00,
2013-04-12 08:28:00,39.1,31.5,29.79,SW,233,4.0,6.0,74,0.00,,,0.01,Wunderground v.1.15,2013-04-12 12:28:00,
2013-04-12 08:30:00,39.1,31.2,29.79,WSW,247,4.0,4.0,73,0.00,,,0.01,Wunderground v.1.15,2013-04-12 12:30:00,
2013-04-12 08:32:00,39.3,31.4,29.79,SW,232,4.0,4.0,73,0.00,,,0.01,Wunderground v.1.15,2013-04-12 12:32:00,
2013-04-12 08:34:00,39.3,31.0,29.79,SW,219,4.0,6.0,72,0.00,,,0.01,Wunderground v.1.15,2013-04-12 12:34:00,
2013-04-12 08:35:00,39.3,31.4,29.79,SW,223,3.0,6.0,73,0.00,,,0.01,Wunderground v.1.15,2013-04-12 12:35:00,
2013-04-12 08:39:00,39.3,31.4,29.79,SW,233,3.0,6.0,73,0.00,,,0.01,Wunderground v.1.15,2013-04-12 12:39:00,
2013-04-12 08:41:00,39.4,31.5,29.79,SW,215,3.0,4.0,73,0.00,,,0.01,Wunderground v.1.15,2013-04-12 12:41:00,
2013-04-12 08:42:00,39.4,31.5,29.79,SW,233,3.0,4.0,73,0.00,,,0.01,Wunderground v.1.15,2013-04-12 12:42:00,
2013-04-12 08:44:00,39.4,31.5,29.79,WSW,239,3.0,4.0,73,0.00,,,0.01,Wunderground v.1.15,2013-04-12 12:44:00,
2013-04-12 08:46:00,39.4,31.5,29.79,SW,236,3.0,4.0,73,0.00,,,0.01,Wunderground v.1.15,2013-04-12 12:46:00,
2013-04-12 08:48:00,39.4,31.5,29.79,SW,236,3.0,4.0,73,0.00,,,0.01,Wunderground v.1.15,2013-04-12 12:48:00,
2013-04-12 08:50:00,39.4,31.5,29.79,SSW,206,3.0,3.0,73,0.00,,,0.01,Wunderground v.1.15,2013-04-12 12:50:00,
2013-04-12 08:52:00,39.4,31.1,29.79,SW,215,3.0,6.0,72,0.00,,,0.01,Wunderground v.1.15,2013-04-12 12:52:00,
2013-04-12 08:55:00,39.4,31.5,29.79,SW,233,3.0,6.0,73,0.00,,,0.01,Wunderground v.1.15,2013-04-12 12:55:00,
2013-04-12 09:00:00,39.6,31.7,29.79,SW,232,4.0,8.0,73,0.00,,,0.01,Wunderground v.1.15,2013-04-12 13:00:00,
2013-04-12 09:01:00,39.6,31.7,29.79,SSW,210,4.0,8.0,73,0.00,,,0.01,Wunderground v.1.15,2013-04-12 13:01:00,
2013-04-12 09:02:00,39.6,31.3,29.79,WSW,237,4.0,8.0,72,0.00,,,0.01,Wunderground v.1.15,2013-04-12 13:02:00,
2013-04-12 09:06:00,39.6,31.3,29.79,SW,216,5.0,10.0,72,0.00,,,0.01,Wunderground v.1.15,2013-04-12 13:06:00,
2013-04-12 09:09:00,39.7,31.4,29.79,SW,222,5.0,10.0,72,0.00,,,0.01,Wunderground v.1.15,2013-04-12 13:09:00,
2013-04-12 09:12:00,39.7,31.4,29.79,SSW,200,5.0,8.0,72,0.00,,,0.01,Wunderground v.1.15,2013-04-12 13:12:00,
2013-04-12 09:14:00,39.8,31.5,29.79,SW,223,4.0,8.0,72,0.00,,,0.01,Wunderground v.1.15,2013-04-12 13:14:00,
2013-04-12 09:15:00,39.8,31.5,29.80,SW,219,4.0,8.0,72,0.00,,,0.01,Wunderground v.1.15,2013-04-12 13:15:00,
2013-04-12 09:17:00,40.0,32.0,29.80,SW,233,4.0,8.0,73,0.00,,,0.01,Wunderground v.1.15,2013-04-12 13:17:00,
2013-04-12 09:21:00,40.1,31.8,29.80,SSW,195,5.0,8.0,72,0.00,,,0.01,Wunderground v.1.15,2013-04-12 13:21:00,
2013-04-12 09:24:00,40.1,31.4,29.80,SSW,212,6.0,11.0,71,0.00,,,0.01,Wunderground v.1.15,2013-04-12 13:24:00,
2013-04-12 09:26:00,40.3,32.0,29.80,SW,224,7.0,11.0,72,0.00,,,0.01,Wunderground v.1.15,2013-04-12 13:26:00,
2013-04-12 09:28:00,40.4,32.1,29.80,SW,222,6.0,11.0,72,0.00,,,0.01,Wunderground v.1.15,2013-04-12 13:28:00,
2013-04-12 09:29:00,40.6,32.6,29.80,SW,220,6.0,11.0,73,0.00,,,0.01,Wunderground v.1.15,2013-04-12 13:29:00,
2013-04-12 09:33:00,41.0,32.7,29.79,SW,224,5.0,8.0,72,0.00,,,0.01,Wunderground v.1.15,2013-04-12 13:33:00,
2013-04-12 09:35:00,41.1,32.1,29.79,SW,217,5.0,10.0,70,0.00,,,0.01,Wunderground v.1.15,2013-04-12 13:35:00,
2013-04-12 09:39:00,41.4,32.7,29.79,SW,220,6.0,10.0,71,0.00,,,0.01,Wunderground v.1.15,2013-04-12 13:39:00,
2013-04-12 09:40:00,41.6,32.9,29.79,SW,226,6.0,6.0,71,0.00,,,0.01,Wunderground v.1.15,2013-04-12 13:40:00,
2013-04-12 09:42:00,41.7,32.6,29.79,SW,227,6.0,11.0,70,0.00,,,0.01,Wunderground v.1.15,2013-04-12 13:42:00,
2013-04-12 09:43:00,42.0,33.3,29.79,SW,227,6.0,11.0,71,0.00,,,0.01,Wunderground v.1.15,2013-04-12 13:43:00,
2013-04-12 09:45:00,42.1,32.3,29.79,SW,229,5.0,11.0,68,0.00,,,0.01,Wunderground v.1.15,2013-04-12 13:45:00,
2013-04-12 09:48:00,42.1,32.7,29.79,WNW,282,5.0,11.0,69,0.00,,,0.01,Wunderground v.1.15,2013-04-12 13:48:00,
2013-04-12 09:49:00,42.3,32.8,29.79,SW,236,4.0,11.0,69,0.00,,,0.01,Wunderground v.1.15,2013-04-12 13:49:00,
2013-04-12 09:51:00,42.4,32.9,29.79,West,264,5.0,6.0,69,0.00,,,0.01,Wunderground v.1.15,2013-04-12 13:51:00,
2013-04-12 09:53:00,42.6,32.4,29.79,SW,216,5.0,7.0,67,0.00,,,0.01,Wunderground v.1.15,2013-04-12 13:53:00,
2013-04-12 09:55:00,42.7,32.5,29.79,SW,227,5.0,7.0,67,0.00,,,0.01,Wunderground v.1.15,2013-04-12 13:55:00,
2013-04-12 09:58:00,42.7,31.7,29.79,SSW,198,7.0,14.0,65,0.00,,,0.01,Wunderground v.1.15,2013-04-12 13:58:00,
2013-04-12 10:02:00,42.8,31.8,29.78,South,191,9.0,11.0,65,0.00,,,0.01,Wunderground v.1.15,2013-04-12 14:02:00,
2013-04-12 10:03:00,43.0,32.4,29.78,WSW,243,9.0,11.0,66,0.00,,,0.01,Wunderground v.1.15,2013-04-12 14:03:00,
2013-04-12 10:05:00,43.1,32.5,29.78,WSW,258,9.0,11.0,66,0.00,,,0.01,Wunderground v.1.15,2013-04-12 14:05:00,
2013-04-12 10:08:00,43.4,32.0,29.78,WSW,237,8.0,12.0,64,0.00,,,0.01,Wunderground v.1.15,2013-04-12 14:08:00,
2013-04-12 10:14:00,43.6,31.8,29.78,SW,234,8.0,12.0,63,0.00,,,0.01,Wunderground v.1.15,2013-04-12 14:14:00,
2013-04-12 10:15:00,43.6,31.4,29.79,SSW,208,8.0,12.0,62,0.00,,,0.01,Wunderground v.1.15,2013-04-12 14:15:00,
2013-04-12 10:16:00,43.7,31.5,29.79,SSW,192,9.0,13.0,62,0.00,,,0.01,Wunderground v.1.15,2013-04-12 14:16:00,
2013-04-12 10:19:00,43.8,32.0,29.79,SSW,209,10.0,17.0,63,0.00,,,0.01,Wunderground v.1.15,2013-04-12 14:19:00,
2013-04-12 10:21:00,43.8,31.6,29.79,SW,227,10.0,10.0,62,0.00,,,0.01,Wunderground v.1.15,2013-04-12 14:21:00,
2013-04-12 10:22:00,43.7,31.5,29.79,SSW,210,10.0,10.0,62,0.00,,,0.01,Wunderground v.1.15,2013-04-12 14:22:00,
2013-04-12 10:24:00,43.8,31.6,29.79,WSW,243,10.0,11.0,62,0.00,,,0.01,Wunderground v.1.15,2013-04-12 14:24:00,
2013-04-12 10:25:00,43.8,31.2,29.79,SW,216,10.0,13.0,61,0.00,,,0.01,Wunderground v.1.15,2013-04-12 14:25:00,
2013-04-12 10:28:00,44.0,31.4,29.79,WSW,241,10.0,13.0,61,0.00,,,0.01,Wunderground v.1.15,2013-04-12 14:28:00,
2013-04-12 10:33:00,44.7,32.1,29.79,SSW,210,9.0,10.0,61,0.00,,,0.01,Wunderground v.1.15,2013-04-12 14:33:00,
2013-04-12 10:34:00,44.8,31.8,29.79,SW,227,9.0,10.0,60,0.00,,,0.01,Wunderground v.1.15,2013-04-12 14:34:00,
2013-04-12 10:35:00,45.0,31.9,29.79,SSW,206,9.0,13.0,60,0.00,,,0.01,Wunderground v.1.15,2013-04-12 14:35:00,
2013-04-12 10:37:00,45.0,31.9,29.79,West,264,10.0,13.0,60,0.00,,,0.01,Wunderground v.1.15,2013-04-12 14:37:00,
2013-04-12 10:38:00,45.0,32.3,29.79,WSW,237,9.0,13.0,61,0.00,,,0.01,Wunderground v.1.15,2013-04-12 14:38:00,
2013-04-12 10:39:00,45.0,31.5,29.79,SW,224,8.0,13.0,59,0.00,,,0.01,Wunderground v.1.15,2013-04-12 14:39:00,
2013-04-12 10:42:00,45.1,32.0,29.79,SSW,209,9.0,19.0,60,0.00,,,0.01,Wunderground v.1.15,2013-04-12 14:42:00,
2013-04-12 10:43:00,45.1,31.6,29.79,SW,220,10.0,19.0,59,0.00,,,0.01,Wunderground v.1.15,2013-04-12 14:43:00,
2013-04-12 10:48:00,45.3,32.2,29.79,WSW,246,10.0,21.0,60,0.00,,,0.01,Wunderground v.1.15,2013-04-12 14:48:00,
2013-04-12 10:49:00,45.4,32.3,29.79,NW,313,11.0,21.0,60,0.00,,,0.01,Wunderground v.1.15,2013-04-12 14:49:00,
2013-04-12 10:50:00,45.4,32.3,29.79,WNW,284,10.0,10.0,60,0.00,,,0.01,Wunderground v.1.15,2013-04-12 14:50:00,
2013-04-12 10:54:00,45.6,32.1,29.79,West,275,8.0,11.0,59,0.00,,,0.01,Wunderground v.1.15,2013-04-12 14:54:00,
2013-04-12 10:55:00,45.6,32.1,29.79,WSW,241,7.0,11.0,59,0.00,,,0.01,Wunderground v.1.15,2013-04-12 14:55:00,
2013-04-12 10:56:00,45.6,32.1,29.79,WSW,251,7.0,11.0,59,0.00,,,0.01,Wunderground v.1.15,2013-04-12 14:56:00,
2013-04-12 10:58:00,45.7,32.6,29.79,WNW,284,7.0,11.0,60,0.00,,,0.01,Wunderground v.1.15,2013-04-12 14:58:00,
2013-04-12 11:02:00,46.3,33.2,29.79,SW,223,5.0,10.0,60,0.00,,,0.01,Wunderground v.1.15,2013-04-12 15:02:00,
2013-04-12 11:05:00,46.7,31.8,29.79,SW,233,5.0,14.0,56,0.00,,,0.01,Wunderground v.1.15,2013-04-12 15:05:00,
2013-04-12 11:07:00,46.5,31.2,29.79,WSW,237,6.0,14.0,55,0.00,,,0.01,Wunderground v.1.15,2013-04-12 15:07:00,
2013-04-12 11:08:00,46.3,31.0,29.79,SW,217,6.0,14.0,55,0.00,,,0.01,Wunderground v.1.15,2013-04-12 15:08:00,
2013-04-12 11:12:00,46.0,31.2,29.79,West,264,10.0,14.0,56,0.00,,,0.01,Wunderground v.1.15,2013-04-12 15:12:00,
2013-04-12 11:13:00,46.2,31.8,29.79,WSW,247,9.0,14.0,57,0.00,,,0.01,Wunderground v.1.15,2013-04-12 15:13:00,
2013-04-12 11:16:00,46.5,32.1,29.79,WNW,294,9.0,14.0,57,0.00,,,0.01,Wunderground v.1.15,2013-04-12 15:16:00,
2013-04-12 11:17:00,46.5,32.1,29.79,West,260,8.0,14.0,57,0.00,,,0.01,Wunderground v.1.15,2013-04-12 15:17:00,
2013-04-12 11:18:00,46.6,32.2,29.79,WSW,237,8.0,14.0,57,0.00,,,0.01,Wunderground v.1.15,2013-04-12 15:18:00,
2013-04-12 11:23:00,46.7,32.3,29.79,WSW,244,6.0,9.0,57,0.00,,,0.01,Wunderground v.1.15,2013-04-12 15:23:00,
2013-04-12 11:25:00,46.9,32.4,29.79,SW,236,7.0,9.0,57,0.00,,,0.01,Wunderground v.1.15,2013-04-12 15:25:00,
2013-04-12 11:29:00,46.9,32.9,29.79,West,277,5.0,9.0,58,0.00,,,0.01,Wunderground v.1.15,2013-04-12 15:29:00,
2013-04-12 11:30:00,46.9,32.9,29.79,West,272,5.0,6.0,58,0.00,,,0.01,Wunderground v.1.15,2013-04-12 15:30:00,
2013-04-12 11:31:00,46.9,32.4,29.79,WSW,256,5.0,6.0,57,0.00,,,0.01,Wunderground v.1.15,2013-04-12 15:31:00,
2013-04-12 11:35:00,47.2,32.7,29.79,WNW,302,6.0,9.0,57,0.00,,,0.01,Wunderground v.1.15,2013-04-12 15:35:00,
2013-04-12 11:36:00,47.3,33.3,29.79,WSW,237,6.0,9.0,58,0.00,,,0.01,Wunderground v.1.15,2013-04-12 15:36:00,
2013-04-12 11:37:00,47.3,33.3,29.79,SW,227,6.0,9.0,58,0.00,,,0.01,Wunderground v.1.15,2013-04-12 15:37:00,
2013-04-12 11:39:00,47.5,33.0,29.79,SW,229,7.0,9.0,57,0.00,,,0.01,Wunderground v.1.15,2013-04-12 15:39:00,
2013-04-12 11:40:00,47.5,32.6,29.79,SW,223,7.0,7.0,56,0.00,,,0.01,Wunderground v.1.15,2013-04-12 15:40:00,
2013-04-12 11:43:00,47.3,31.9,29.79,South,184,8.0,14.0,55,0.00,,,0.01,Wunderground v.1.15,2013-04-12 15:43:00,
2013-04-12 11:46:00,47.2,32.3,29.79,SSW,196,9.0,20.0,56,0.00,,,0.01,Wunderground v.1.15,2013-04-12 15:46:00,
2013-04-12 11:47:00,47.2,31.8,29.79,South,189,10.0,20.0,55,0.00,,,0.01,Wunderground v.1.15,2013-04-12 15:47:00,
2013-04-12 11:48:00,47.0,31.7,29.79,SSW,195,10.0,20.0,55,0.00,,,0.01,Wunderground v.1.15,2013-04-12 15:48:00,
2013-04-12 11:52:00,47.2,32.3,29.79,SSW,195,12.0,24.0,56,0.00,,,0.01,Wunderground v.1.15,2013-04-12 15:52:00,
2013-04-12 11:54:00,47.0,31.7,29.79,SW,216,12.0,24.0,55,0.00,,,0.01,Wunderground v.1.15,2013-04-12 15:54:00,
2013-04-12 11:55:00,47.2,31.8,29.79,WSW,241,12.0,24.0,55,0.00,,,0.01,Wunderground v.1.15,2013-04-12 15:55:00,
2013-04-12 11:56:00,47.2,31.4,29.79,SSW,202,12.0,24.0,54,0.00,,,0.01,Wunderground v.1.15,2013-04-12 15:56:00,
2013-04-12 12:00:00,47.3,31.5,29.79,WSW,258,11.0,11.0,54,0.00,,,0.01,Wunderground v.1.15,2013-04-12 16:00:00,
2013-04-12 12:02:00,47.5,31.7,29.79,WSW,253,11.0,11.0,54,0.00,,,0.01,Wunderground v.1.15,2013-04-12 16:02:00,
2013-04-12 12:04:00,47.6,31.8,29.79,SSW,196,10.0,14.0,54,0.00,,,0.01,Wunderground v.1.15,2013-04-12 16:04:00,
2013-04-12 12:07:00,47.5,31.7,29.79,SSW,213,9.0,14.0,54,0.00,,,0.01,Wunderground v.1.15,2013-04-12 16:07:00,
2013-04-12 12:08:00,47.5,31.7,29.79,WSW,246,9.0,14.0,54,0.00,,,0.01,Wunderground v.1.15,2013-04-12 16:08:00,
2013-04-12 12:12:00,47.5,31.7,29.79,West,265,7.0,8.0,54,0.00,,,0.01,Wunderground v.1.15,2013-04-12 16:12:00,
2013-04-12 12:13:00,47.5,31.7,29.79,WSW,248,7.0,8.0,54,0.00,,,0.01,Wunderground v.1.15,2013-04-12 16:13:00,
2013-04-12 12:14:00,47.3,31.5,29.79,SSW,213,7.0,11.0,54,0.00,,,0.01,Wunderground v.1.15,2013-04-12 16:14:00,
2013-04-12 12:15:00,47.2,31.4,29.80,West,268,8.0,11.0,54,0.00,,,0.01,Wunderground v.1.15,2013-04-12 16:15:00,
2013-04-12 12:19:00,47.0,31.7,29.80,SW,223,8.0,17.0,55,0.00,,,0.01,Wunderground v.1.15,2013-04-12 16:19:00,
2013-04-12 12:20:00,47.0,31.7,29.80,SW,215,9.0,9.0,55,0.00,,,0.01,Wunderground v.1.15,2013-04-12 16:20:00,
2013-04-12 12:21:00,47.0,32.1,29.80,West,260,9.0,9.0,56,0.00,,,0.01,Wunderground v.1.15,2013-04-12 16:21:00,
2013-04-12 12:22:00,47.0,32.1,29.80,SW,215,9.0,11.0,56,0.00,,,0.01,Wunderground v.1.15,2013-04-12 16:22:00,
2013-04-12 12:26:00,47.0,31.7,29.80,West,272,8.0,11.0,55,0.00,,,0.01,Wunderground v.1.15,2013-04-12 16:26:00,
2013-04-12 12:27:00,47.0,31.7,29.80,SW,226,8.0,11.0,55,0.00,,,0.01,Wunderground v.1.15,2013-04-12 16:27:00,
2013-04-12 12:28:00,47.0,31.7,29.80,SW,224,7.0,11.0,55,0.00,,,0.01,Wunderground v.1.15,2013-04-12 16:28:00,
2013-04-12 12:30:00,46.9,32.0,29.80,West,280,7.0,7.0,56,0.00,,,0.01,Wunderground v.1.15,2013-04-12 16:30:00,
2013-04-12 12:33:00,46.9,32.0,29.80,West,280,6.0,7.0,56,0.00,,,0.01,Wunderground v.1.15,2013-04-12 16:33:00,
2013-04-12 12:34:00,46.9,32.0,29.80,West,281,7.0,7.0,56,0.00,,,0.01,Wunderground v.1.15,2013-04-12 16:34:00,
2013-04-12 12:35:00,46.9,32.0,29.80,West,271,7.0,7.0,56,0.00,,,0.01,Wunderground v.1.15,2013-04-12 16:35:00,
2013-04-12 12:37:00,46.7,32.3,29.80,WSW,256,7.0,7.0,57,0.00,,,0.01,Wunderground v.1.15,2013-04-12 16:37:00,
2013-04-12 12:40:00,46.7,32.3,29.80,SW,227,7.0,11.0,57,0.00,,,0.01,Wunderground v.1.15,2013-04-12 16:40:00,
2013-04-12 12:42:00,46.7,32.3,29.80,SW,230,8.0,11.0,57,0.00,,,0.01,Wunderground v.1.15,2013-04-12 16:42:00,
2013-04-12 12:43:00,46.7,32.3,29.80,WNW,295,8.0,11.0,57,0.00,,,0.01,Wunderground v.1.15,2013-04-12 16:43:00,
2013-04-12 12:47:00,46.6,31.3,29.81,SSW,212,9.0,14.0,55,0.00,,,0.01,Wunderground v.1.15,2013-04-12 16:47:00,
2013-04-12 12:48:00,46.6,31.3,29.81,West,261,9.0,15.0,55,0.00,,,0.01,Wunderground v.1.15,2013-04-12 16:48:00,
2013-04-12 12:51:00,46.5,31.2,29.81,SW,216,10.0,14.0,55,0.00,,,0.01,Wunderground v.1.15,2013-04-12 16:51:00,
2013-04-12 12:53:00,46.3,31.4,29.81,SW,222,10.0,19.0,56,0.00,,,0.01,Wunderground v.1.15,2013-04-12 16:53:00,
2013-04-12 12:54:00,46.3,31.4,29.81,SW,220,11.0,19.0,56,0.00,,,0.01,Wunderground v.1.15,2013-04-12 16:54:00,
2013-04-12 12:56:00,46.3,31.9,29.81,West,267,10.0,19.0,57,0.00,,,0.01,Wunderground v.1.15,2013-04-12 16:56:00,
2013-04-12 12:59:00,46.5,31.6,29.81,WSW,251,9.0,19.0,56,0.00,,,0.01,Wunderground v.1.15,2013-04-12 16:59:00,
2013-04-12 13:00:00,46.5,31.6,29.81,WNW,287,9.0,9.0,56,0.00,,,0.01,Wunderground v.1.15,2013-04-12 17:00:00,
2013-04-12 13:02:00,46.5,31.6,29.81,WSW,251,8.0,9.0,56,0.00,,,0.01,Wunderground v.1.15,2013-04-12 17:02:00,
2013-04-12 13:06:00,46.6,32.2,29.81,WSW,241,6.0,19.0,57,0.00,,,0.01,Wunderground v.1.15,2013-04-12 17:06:00,
2013-04-12 13:07:00,46.6,31.7,29.81,West,261,7.0,19.0,56,0.00,,,0.01,Wunderground v.1.15,2013-04-12 17:07:00,
2013-04-12 13:12:00,46.9,32.0,29.81,West,280,6.0,8.0,56,0.00,,,0.01,Wunderground v.1.15,2013-04-12 17:12:00,
2013-04-12 13:14:00,46.9,32.0,29.81,WSW,240,6.0,8.0,56,0.00,,,0.01,Wunderground v.1.15,2013-04-12 17:14:00,
2013-04-12 13:17:00,47.0,32.1,29.81,WSW,244,6.0,13.0,56,0.00,,,0.01,Wunderground v.1.15,2013-04-12 17:17:00,
2013-04-12 13:20:00,47.0,32.5,29.81,WSW,240,6.0,6.0,57,0.00,,,0.01,Wunderground v.1.15,2013-04-12 17:20:00,
2013-04-12 13:22:00,47.2,32.7,29.81,WSW,247,6.0,7.0,57,0.00,,,0.01,Wunderground v.1.15,2013-04-12 17:22:00,
2013-04-12 13:24:00,47.2,31.8,29.81,WSW,248,6.0,8.0,55,0.00,,,0.01,Wunderground v.1.15,2013-04-12 17:24:00,
2013-04-12 13:25:00,47.2,32.3,29.81,SW,236,6.0,18.0,56,0.00,,,0.01,Wunderground v.1.15,2013-04-12 17:25:00,
2013-04-12 13:26:00,47.2,31.8,29.81,SW,234,6.0,18.0,55,0.00,,,0.01,Wunderground v.1.15,2013-04-12 17:26:00,
2013-04-12 13:28:00,47.0,32.5,29.81,West,268,6.0,18.0,57,0.00,,,0.01,Wunderground v.1.15,2013-04-12 17:28:00,
2013-04-12 13:29:00,47.2,32.7,29.81,WSW,248,6.0,18.0,57,0.00,,,0.01,Wunderground v.1.15,2013-04-12 17:29:00,
2013-04-12 13:32:00,47.2,32.3,29.81,SSW,199,6.0,12.0,56,0.00,,,0.01,Wunderground v.1.15,2013-04-12 17:32:00,
2013-04-12 13:35:00,47.2,32.3,29.81,WNW,296,6.0,12.0,56,0.00,,,0.01,Wunderground v.1.15,2013-04-12 17:35:00,
2013-04-12 13:37:00,47.2,32.3,29.81,WNW,284,6.0,12.0,56,0.00,,,0.01,Wunderground v.1.15,2013-04-12 17:37:00,
2013-04-12 13:39:00,47.2,32.3,29.81,West,263,7.0,12.0,56,0.00,,,0.01,Wunderground v.1.15,2013-04-12 17:39:00,
2013-04-12 13:43:00,47.5,32.6,29.81,NW,306,6.0,8.0,56,0.00,,,0.01,Wunderground v.1.15,2013-04-12 17:43:00,
2013-04-12 13:45:00,47.3,31.9,29.81,SW,230,6.0,11.0,55,0.00,,,0.01,Wunderground v.1.15,2013-04-12 17:45:00,
2013-04-12 13:46:00,47.3,31.9,29.81,SSW,212,7.0,11.0,55,0.00,,,0.01,Wunderground v.1.15,2013-04-12 17:46:00,
2013-04-12 13:51:00,47.2,31.8,29.81,WSW,250,9.0,10.0,55,0.00,,,0.01,Wunderground v.1.15,2013-04-12 17:51:00,
2013-04-12 13:52:00,47.2,31.8,29.81,WSW,250,9.0,10.0,55,0.00,,,0.01,Wunderground v.1.15,2013-04-12 17:52:00,
2013-04-12 13:57:00,47.2,32.3,29.81,WSW,257,8.0,13.0,56,0.00,,,0.01,Wunderground v.1.15,2013-04-12 17:57:00,
2013-04-12 13:58:00,47.2,32.3,29.81,West,265,8.0,13.0,56,0.00,,,0.01,Wunderground v.1.15,2013-04-12 17:58:00,
2013-04-12 14:03:00,47.0,32.1,29.81,West,260,7.0,12.0,56,0.00,,,0.01,Wunderground v.1.15,2013-04-12 18:03:00,
2013-04-12 14:04:00,47.0,32.1,29.81,WSW,257,7.0,12.0,56,0.00,,,0.01,Wunderground v.1.15,2013-04-12 18:04:00,
2013-04-12 14:09:00,46.9,32.0,29.81,West,270,7.0,12.0,56,0.00,,,0.01,Wunderground v.1.15,2013-04-12 18:09:00,
2013-04-12 14:10:00,46.9,32.0,29.81,WNW,288,7.0,7.0,56,0.00,,,0.01,Wunderground v.1.15,2013-04-12 18:10:00,
2013-04-12 14:15:00,47.0,32.5,29.82,WSW,240,5.0,7.0,57,0.00,,,0.01,Wunderground v.1.15,2013-04-12 18:15:00,
2013-04-12 14:22:00,46.9,32.4,29.82,WSW,251,5.0,6.0,57,0.00,,,0.01,Wunderground v.1.15,2013-04-12 18:22:00,
2013-04-12 14:28:00,47.2,32.3,29.82,West,261,5.0,12.0,56,0.00,,,0.01,Wunderground v.1.15,2013-04-12 18:28:00,
2013-04-12 15:26:00,47.3,32.8,29.85,WNW,282,6.0,13.0,57,0.00,,,0.01,Wunderground v.1.15,2013-04-12 19:26:00,
2013-04-12 15:28:00,47.3,33.3,29.85,West,268,5.0,13.0,58,0.00,,,0.01,Wunderground v.1.15,2013-04-12 19:28:00,
2013-04-12 15:29:00,47.5,33.0,29.85,WSW,248,5.0,13.0,57,0.00,,,0.01,Wunderground v.1.15,2013-04-12 19:29:00,
2013-04-12 15:30:00,47.5,33.0,29.85,WSW,257,5.0,5.0,57,0.00,,,0.01,Wunderground v.1.15,2013-04-12 19:30:00,
2013-04-12 15:33:00,47.6,32.7,29.85,WNW,299,5.0,10.0,56,0.00,,,0.01,Wunderground v.1.15,2013-04-12 19:33:00,
2013-04-12 15:35:00,47.6,33.1,29.85,WSW,250,5.0,10.0,57,0.00,,,0.01,Wunderground v.1.15,2013-04-12 19:35:00,
2013-04-12 15:39:00,47.6,32.7,29.85,West,274,6.0,10.0,56,0.00,,,0.01,Wunderground v.1.15,2013-04-12 19:39:00,
2013-04-12 15:40:00,47.8,32.9,29.85,West,265,6.0,6.0,56,0.00,,,0.01,Wunderground v.1.15,2013-04-12 19:40:00,
2013-04-12 15:41:00,47.8,33.3,29.85,NW,308,6.0,6.0,57,0.00,,,0.01,Wunderground v.1.15,2013-04-12 19:41:00,
2013-04-12 15:46:00,47.8,32.9,29.85,West,274,6.0,17.0,56,0.00,,,0.01,Wunderground v.1.15,2013-04-12 19:46:00,
2013-04-12 15:47:00,47.8,32.4,29.85,WNW,287,6.0,17.0,55,0.00,,,0.01,Wunderground v.1.15,2013-04-12 19:47:00,
2013-04-12 15:48:00,47.8,32.4,29.85,WNW,282,7.0,17.0,55,0.00,,,0.01,Wunderground v.1.15,2013-04-12 19:48:00,
2013-04-12 15:51:00,47.8,32.9,29.85,West,264,8.0,19.0,56,0.00,,,0.01,Wunderground v.1.15,2013-04-12 19:51:00,
2013-04-12 15:52:00,47.8,32.4,29.85,West,260,9.0,19.0,55,0.00,,,0.01,Wunderground v.1.15,2013-04-12 19:52:00,
2013-04-12 15:56:00,47.8,32.4,29.85,West,270,8.0,19.0,55,0.00,,,0.01,Wunderground v.1.15,2013-04-12 19:56:00,
2013-04-12 15:57:00,47.8,32.4,29.85,West,265,9.0,19.0,55,0.00,,,0.01,Wunderground v.1.15,2013-04-12 19:57:00,
2013-04-12 15:59:00,47.8,32.4,29.85,SW,230,8.0,19.0,55,0.00,,,0.01,Wunderground v.1.15,2013-04-12 19:59:00,
2013-04-12 16:02:00,47.6,32.2,29.85,West,265,8.0,13.0,55,0.00,,,0.01,Wunderground v.1.15,2013-04-12 20:02:00,
2013-04-12 16:03:00,47.6,32.2,29.85,West,278,8.0,13.0,55,0.00,,,0.01,Wunderground v.1.15,2013-04-12 20:03:00,
2013-04-12 16:05:00,47.6,32.2,29.85,West,267,8.0,13.0,55,0.00,,,0.01,Wunderground v.1.15,2013-04-12 20:05:00,
2013-04-12 16:07:00,47.6,32.7,29.85,WNW,302,8.0,13.0,56,0.00,,,0.01,Wunderground v.1.15,2013-04-12 20:07:00,
2013-04-12 16:09:00,47.6,32.2,29.85,WSW,241,8.0,17.0,55,0.00,,,0.01,Wunderground v.1.15,2013-04-12 20:09:00,
2013-04-12 16:13:00,47.5,31.7,29.85,West,263,8.0,17.0,54,0.00,,,0.01,Wunderground v.1.15,2013-04-12 20:13:00,
2013-04-12 16:15:00,47.6,32.2,29.85,NW,305,8.0,17.0,55,0.00,,,0.01,Wunderground v.1.15,2013-04-12 20:15:00,
2013-04-12 16:18:00,47.6,32.2,29.85,West,274,8.0,17.0,55,0.00,,,0.01,Wunderground v.1.15,2013-04-12 20:18:00,
2013-04-12 16:21:00,47.8,32.4,29.85,NW,326,8.0,11.0,55,0.00,,,0.01,Wunderground v.1.15,2013-04-12 20:21:00,
2013-04-12 16:22:00,47.8,32.4,29.85,WNW,291,8.0,11.0,55,0.00,,,0.01,Wunderground v.1.15,2013-04-12 20:22:00,
2013-04-12 16:25:00,47.8,33.3,29.85,WSW,247,8.0,11.0,57,0.00,,,0.01,Wunderground v.1.15,2013-04-12 20:25:00,
2013-04-12 16:26:00,47.8,32.4,29.85,West,275,8.0,11.0,55,0.00,,,0.01,Wunderground v.1.15,2013-04-12 20:26:00,
2013-04-12 16:30:00,47.9,32.9,29.86,WNW,289,7.0,7.0,56,0.00,,,0.01,Wunderground v.1.15,2013-04-12 20:30:00,
2013-04-12 16:31:00,47.9,32.5,29.86,NW,318,7.0,7.0,55,0.00,,,0.01,Wunderground v.1.15,2013-04-12 20:31:00,
2013-04-12 16:33:00,47.9,32.5,29.86,West,264,7.0,8.0,55,0.00,,,0.01,Wunderground v.1.15,2013-04-12 20:33:00,
2013-04-12 16:36:00,47.9,32.5,29.86,WNW,289,7.0,8.0,55,0.00,,,0.01,Wunderground v.1.15,2013-04-12 20:36:00,
2013-04-12 16:37:00,47.9,32.0,29.86,WNW,282,7.0,12.0,54,0.00,,,0.01,Wunderground v.1.15,2013-04-12 20:37:00,
2013-04-12 16:41:00,47.9,32.0,29.86,NW,318,7.0,7.0,54,0.00,,,0.01,Wunderground v.1.15,2013-04-12 20:41:00,
2013-04-12 16:44:00,48.1,32.2,29.86,WSW,241,8.0,14.0,54,0.00,,,0.01,Wunderground v.1.15,2013-04-12 20:44:00,
2013-04-12 16:45:00,48.1,32.2,29.86,West,265,8.0,14.0,54,0.00,,,0.01,Wunderground v.1.15,2013-04-12 20:45:00,
2013-04-12 16:46:00,48.1,32.2,29.86,West,275,8.0,14.0,54,0.00,,,0.01,Wunderground v.1.15,2013-04-12 20:46:00,
2013-04-12 16:50:00,48.2,32.3,29.86,WSW,257,8.0,8.0,54,0.00,,,0.01,Wunderground v.1.15,2013-04-12 20:50:00,
2013-04-12 16:51:00,48.2,32.3,29.86,WNW,284,8.0,8.0,54,0.00,,,0.01,Wunderground v.1.15,2013-04-12 20:51:00,
2013-04-12 16:53:00,48.4,32.5,29.86,WSW,256,8.0,8.0,54,0.00,,,0.01,Wunderground v.1.15,2013-04-12 20:53:00,
2013-04-12 16:58:00,48.5,32.1,29.86,NW,322,7.0,14.0,53,0.00,,,0.01,Wunderground v.1.15,2013-04-12 20:58:00,
2013-04-12 16:59:00,48.5,32.6,29.86,WNW,288,7.0,14.0,54,0.00,,,0.01,Wunderground v.1.15,2013-04-12 20:59:00,
2013-04-12 17:01:00,48.7,32.8,29.87,NW,308,7.0,7.0,54,0.00,,,0.01,Wunderground v.1.15,2013-04-12 21:01:00,
2013-04-12 17:04:00,48.7,32.8,29.87,WNW,288,7.0,8.0,54,0.00,,,0.01,Wunderground v.1.15,2013-04-12 21:04:00,
2013-04-12 17:05:00,48.7,33.2,29.87,WNW,298,7.0,8.0,55,0.00,,,0.01,Wunderground v.1.15,2013-04-12 21:05:00,
2013-04-12 17:06:00,48.7,33.7,29.87,West,277,7.0,10.0,56,0.00,,,0.01,Wunderground v.1.15,2013-04-12 21:06:00,
2013-04-12 17:09:00,48.7,32.8,29.87,West,274,7.0,10.0,54,0.00,,,0.01,Wunderground v.1.15,2013-04-12 21:09:00,
2013-04-12 17:12:00,48.8,32.9,29.87,WSW,254,7.0,14.0,54,0.00,,,0.01,Wunderground v.1.15,2013-04-12 21:12:00,
2013-04-12 17:15:00,49.0,32.6,29.87,NW,304,7.0,14.0,53,0.00,,,0.01,Wunderground v.1.15,2013-04-12 21:15:00,
2013-04-12 17:17:00,49.1,33.2,29.87,WNW,299,7.0,14.0,54,0.00,,,0.01,Wunderground v.1.15,2013-04-12 21:17:00,
2013-04-12 17:18:00,49.1,33.2,29.87,NW,318,7.0,14.0,54,0.00,,,0.01,Wunderground v.1.15,2013-04-12 21:18:00,
2013-04-12 17:23:00,49.4,32.0,29.87,SSW,213,7.0,12.0,51,0.00,,,0.01,Wunderground v.1.15,2013-04-12 21:23:00,
2013-04-12 17:25:00,49.6,32.7,29.87,WNW,302,7.0,12.0,52,0.00,,,0.01,Wunderground v.1.15,2013-04-12 21:25:00,
2013-04-12 17:26:00,49.6,33.2,29.87,NW,309,6.0,12.0,53,0.00,,,0.01,Wunderground v.1.15,2013-04-12 21:26:00,
2013-04-12 17:30:00,49.4,32.5,29.88,NNW,347,7.0,11.0,52,0.00,,,0.01,Wunderground v.1.15,2013-04-12 21:30:00,
2013-04-12 17:31:00,49.4,32.0,29.88,NNW,333,7.0,11.0,51,0.00,,,0.01,Wunderground v.1.15,2013-04-12 21:31:00,
2013-04-12 17:32:00,49.4,32.5,29.88,West,260,7.0,11.0,52,0.00,,,0.01,Wunderground v.1.15,2013-04-12 21:32:00,
2013-04-12 17:34:00,49.4,32.5,29.88,WNW,295,8.0,11.0,52,0.00,,,0.01,Wunderground v.1.15,2013-04-12 21:34:00,
2013-04-12 17:37:00,49.6,33.2,29.88,West,263,8.0,11.0,53,0.00,,,0.01,Wunderground v.1.15,2013-04-12 21:37:00,
2013-04-12 17:40:00,49.6,32.2,29.88,West,267,8.0,8.0,51,0.00,,,0.01,Wunderground v.1.15,2013-04-12 21:40:00,
2013-04-12 17:41:00,49.6,32.7,29.88,West,271,7.0,8.0,52,0.00,,,0.01,Wunderground v.1.15,2013-04-12 21:41:00,
2013-04-12 17:43:00,49.4,32.5,29.88,WSW,258,7.0,10.0,52,0.00,,,0.01,Wunderground v.1.15,2013-04-12 21:43:00,
2013-04-12 17:46:00,49.3,31.9,29.89,NNW,347,6.0,19.0,51,0.00,,,0.01,Wunderground v.1.15,2013-04-12 21:46:00,
2013-04-12 17:47:00,49.3,32.4,29.89,West,274,7.0,19.0,52,0.00,,,0.01,Wunderground v.1.15,2013-04-12 21:47:00,
2013-04-12 17:48:00,49.3,31.4,29.89,WSW,250,8.0,19.0,50,0.00,,,0.01,Wunderground v.1.15,2013-04-12 21:48:00,
2013-04-12 17:50:00,49.1,31.2,29.89,West,268,8.0,8.0,50,0.00,,,0.01,Wunderground v.1.15,2013-04-12 21:50:00,
2013-04-12 17:51:00,49.0,31.2,29.89,West,261,8.0,15.0,50,0.00,,,0.01,Wunderground v.1.15,2013-04-12 21:51:00,
2013-04-12 17:55:00,48.8,31.0,29.89,West,275,9.0,15.0,50,0.00,,,0.01,Wunderground v.1.15,2013-04-12 21:55:00,
2013-04-12 17:57:00,48.7,31.4,29.89,WNW,294,9.0,17.0,51,0.00,,,0.01,Wunderground v.1.15,2013-04-12 21:57:00,
2013-04-12 17:59:00,48.5,30.2,29.89,West,265,8.0,17.0,49,0.00,,,0.01,Wunderground v.1.15,2013-04-12 21:59:00,
2013-04-12 18:01:00,48.7,30.9,29.89,West,277,8.0,12.0,50,0.00,,,0.01,Wunderground v.1.15,2013-04-12 22:01:00,
2013-04-12 18:02:00,48.7,30.9,29.89,West,265,8.0,12.0,50,0.00,,,0.01,Wunderground v.1.15,2013-04-12 22:02:00,
2013-04-12 18:04:00,49.0,31.6,29.89,WNW,287,8.0,12.0,51,0.00,,,0.01,Wunderground v.1.15,2013-04-12 22:04:00,
2013-04-12 18:07:00,49.3,31.4,29.89,WNW,291,6.0,12.0,50,0.00,,,0.01,Wunderground v.1.15,2013-04-12 22:07:00,
2013-04-12 18:08:00,49.4,31.5,29.89,NW,306,6.0,12.0,50,0.00,,,0.01,Wunderground v.1.15,2013-04-12 22:08:00,
2013-04-12 18:10:00,49.6,31.7,29.89,WSW,246,5.0,10.0,50,0.00,,,0.01,Wunderground v.1.15,2013-04-12 22:10:00,
2013-04-12 18:13:00,49.4,31.5,29.89,West,280,5.0,10.0,50,0.00,,,0.01,Wunderground v.1.15,2013-04-12 22:13:00,
2013-04-12 18:14:00,49.4,32.0,29.89,WSW,254,5.0,10.0,51,0.00,,,0.01,Wunderground v.1.15,2013-04-12 22:14:00,
2013-04-12 18:15:00,49.3,31.9,29.90,West,263,5.0,10.0,51,0.00,,,0.01,Wunderground v.1.15,2013-04-12 22:15:00,
2013-04-12 18:18:00,49.0,31.6,29.90,WNW,298,5.0,12.0,51,0.00,,,0.01,Wunderground v.1.15,2013-04-12 22:18:00,
2013-04-12 18:19:00,49.0,31.6,29.90,WNW,294,6.0,12.0,51,0.00,,,0.01,Wunderground v.1.15,2013-04-12 22:19:00,
2013-04-12 18:21:00,48.8,31.9,29.90,SSW,193,6.0,6.0,52,0.00,,,0.01,Wunderground v.1.15,2013-04-12 22:21:00,
2013-04-12 18:25:00,48.5,31.2,29.90,WNW,287,7.0,13.0,51,0.00,,,0.01,Wunderground v.1.15,2013-04-12 22:25:00,
2013-04-12 18:26:00,48.5,31.7,29.90,WSW,247,7.0,13.0,52,0.00,,,0.01,Wunderground v.1.15,2013-04-12 22:26:00,
2013-04-12 18:27:00,48.4,31.6,29.90,West,268,8.0,13.0,52,0.00,,,0.01,Wunderground v.1.15,2013-04-12 22:27:00,
2013-04-12 18:32:00,48.4,32.0,29.91,SW,224,9.0,9.0,53,0.00,,,0.01,Wunderground v.1.15,2013-04-12 22:32:00,
2013-04-12 18:34:00,48.5,31.7,29.91,WSW,256,8.0,9.0,52,0.00,,,0.01,Wunderground v.1.15,2013-04-12 22:34:00,
2013-04-12 18:35:00,48.5,31.7,29.91,WSW,253,8.0,9.0,52,0.00,,,0.01,Wunderground v.1.15,2013-04-12 22:35:00,
2013-04-12 18:39:00,48.5,31.2,29.91,WSW,250,7.0,10.0,51,0.00,,,0.01,Wunderground v.1.15,2013-04-12 22:39:00,
2013-04-12 18:40:00,48.5,31.7,29.91,WSW,257,6.0,6.0,52,0.00,,,0.01,Wunderground v.1.15,2013-04-12 22:40:00,
2013-04-12 18:41:00,48.5,32.1,29.91,West,281,6.0,6.0,53,0.00,,,0.01,Wunderground v.1.15,2013-04-12 22:41:00,
2013-04-12 18:43:00,48.7,31.8,29.91,West,268,6.0,11.0,52,0.00,,,0.01,Wunderground v.1.15,2013-04-12 22:43:00,
2013-04-12 18:46:00,48.4,31.1,29.90,West,277,7.0,15.0,51,0.00,,,0.01,Wunderground v.1.15,2013-04-12 22:46:00,
2013-04-12 18:47:00,48.4,31.1,29.90,WSW,239,8.0,15.0,51,0.00,,,0.01,Wunderground v.1.15,2013-04-12 22:47:00,
2013-04-12 18:50:00,48.2,31.9,29.90,West,278,9.0,9.0,53,0.00,,,0.01,Wunderground v.1.15,2013-04-12 22:50:00,
2013-04-12 18:53:00,48.1,31.8,29.90,SW,234,9.0,9.0,53,0.00,,,0.01,Wunderground v.1.15,2013-04-12 22:53:00,
2013-04-12 18:56:00,48.1,31.8,29.90,NNW,330,8.0,9.0,53,0.00,,,0.01,Wunderground v.1.15,2013-04-12 22:56:00,
2013-04-12 18:58:00,48.2,31.9,29.90,West,274,8.0,9.0,53,0.00,,,0.01,Wunderground v.1.15,2013-04-12 22:58:00,
2013-04-12 19:00:00,48.2,31.9,29.91,WNW,287,7.0,7.0,53,0.00,,,0.01,Wunderground v.1.15,2013-04-12 23:00:00,
2013-04-12 19:04:00,48.2,31.4,29.91,WSW,257,6.0,11.0,52,0.00,,,0.01,Wunderground v.1.15,2013-04-12 23:04:00,
2013-04-12 19:05:00,48.2,31.4,29.91,West,260,6.0,11.0,52,0.00,,,0.01,Wunderground v.1.15,2013-04-12 23:05:00,
2013-04-12 19:06:00,48.1,31.3,29.91,West,265,6.0,11.0,52,0.00,,,0.01,Wunderground v.1.15,2013-04-12 23:06:00,
2013-04-12 19:07:00,48.1,31.8,29.91,WSW,251,6.0,11.0,53,0.00,,,0.01,Wunderground v.1.15,2013-04-12 23:07:00,
2013-04-12 19:10:00,47.9,32.0,29.91,West,261,6.0,6.0,54,0.00,,,0.01,Wunderground v.1.15,2013-04-12 23:10:00,
2013-04-12 19:11:00,47.8,31.9,29.91,WNW,294,6.0,6.0,54,0.00,,,0.01,Wunderground v.1.15,2013-04-12 23:11:00,
2013-04-12 19:12:00,47.8,31.9,29.91,WNW,285,6.0,6.0,54,0.00,,,0.01,Wunderground v.1.15,2013-04-12 23:12:00,
2013-04-12 19:17:00,47.6,31.8,29.91,West,271,4.0,6.0,54,0.00,,,0.01,Wunderground v.1.15,2013-04-12 23:17:00,
2013-04-12 19:18:00,47.6,31.8,29.91,West,278,4.0,10.0,54,0.00,,,0.01,Wunderground v.1.15,2013-04-12 23:18:00,
2013-04-12 19:21:00,47.5,31.7,29.91,WNW,296,5.0,9.0,54,0.00,,,0.01,Wunderground v.1.15,2013-04-12 23:21:00,
2013-04-12 19:24:00,47.5,32.1,29.91,WSW,247,5.0,9.0,55,0.00,,,0.01,Wunderground v.1.15,2013-04-12 23:24:00,
2013-04-12 19:26:00,47.5,31.7,29.91,WNW,287,6.0,10.0,54,0.00,,,0.01,Wunderground v.1.15,2013-04-12 23:26:00,
2013-04-12 19:29:00,47.5,31.7,29.91,West,272,5.0,10.0,54,0.00,,,0.01,Wunderground v.1.15,2013-04-12 23:29:00,
2013-04-12 19:32:00,47.5,32.6,29.91,WSW,251,4.0,7.0,56,0.00,,,0.01,Wunderground v.1.15,2013-04-12 23:32:00,
2013-04-12 19:34:00,47.5,32.6,29.91,WNW,288,4.0,7.0,56,0.00,,,0.01,Wunderground v.1.15,2013-04-12 23:34:00,
2013-04-12 19:38:00,47.5,32.6,29.91,NNW,343,2.0,7.0,56,0.00,,,0.01,Wunderground v.1.15,2013-04-12 23:38:00,
2013-04-12 19:39:00,47.5,32.6,29.91,NW,323,2.0,7.0,56,0.00,,,0.01,Wunderground v.1.15,2013-04-12 23:39:00,
2013-04-12 19:41:00,47.5,32.6,29.91,WNW,301,3.0,6.0,56,0.00,,,0.01,Wunderground v.1.15,2013-04-12 23:41:00,
2013-04-12 19:42:00,47.5,32.6,29.91,WNW,287,3.0,6.0,56,0.00,,,0.01,Wunderground v.1.15,2013-04-12 23:42:00,
2013-04-12 19:43:00,47.5,32.6,29.91,West,281,3.0,6.0,56,0.00,,,0.01,Wunderground v.1.15,2013-04-12 23:43:00,
2013-04-12 19:48:00,47.5,32.6,29.92,WNW,284,4.0,8.0,56,0.00,,,0.01,Wunderground v.1.15,2013-04-12 23:48:00,
2013-04-12 19:49:00,47.5,32.6,29.92,WNW,284,3.0,8.0,56,0.00,,,0.01,Wunderground v.1.15,2013-04-12 23:49:00,
2013-04-12 19:51:00,47.3,32.4,29.92,WNW,291,3.0,3.0,56,0.00,,,0.01,Wunderground v.1.15,2013-04-12 23:51:00,
2013-04-12 19:53:00,47.3,32.4,29.92,NNW,333,3.0,3.0,56,0.00,,,0.01,Wunderground v.1.15,2013-04-12 23:53:00,
2013-04-12 19:54:00,47.3,32.4,29.92,WNW,282,3.0,3.0,56,0.00,,,0.01,Wunderground v.1.15,2013-04-12 23:54:00,
2013-04-12 19:55:00,47.3,32.4,29.92,WNW,291,2.0,3.0,56,0.00,,,0.01,Wunderground v.1.15,2013-04-12 23:55:00,
2013-04-12 19:57:00,47.3,32.4,29.92,WNW,296,2.0,3.0,56,0.00,,,0.01,Wunderground v.1.15,2013-04-12 23:57:00,
2013-04-12 19:59:00,47.3,32.4,29.92,NNW,337,2.0,3.0,56,0.00,,,0.01,Wunderground v.1.15,2013-04-12 23:59:00,
2013-04-12 20:00:00,47.3,32.4,29.92,NW,319,2.0,7.0,56,0.00,,,0.01,Wunderground v.1.15,2013-04-13 00:00:00,
2013-04-12 20:01:00,47.2,32.3,29.92,West,280,2.0,7.0,56,0.00,,,0.01,Wunderground v.1.15,2013-04-13 00:01:00,
2013-04-12 20:04:00,47.2,32.3,29.92,NW,313,3.0,7.0,56,0.00,,,0.01,Wunderground v.1.15,2013-04-13 00:04:00,
2013-04-12 20:06:00,47.2,32.7,29.92,WNW,291,3.0,7.0,57,0.00,,,0.01,Wunderground v.1.15,2013-04-13 00:06:00,
2013-04-12 20:07:00,47.2,32.7,29.92,WNW,291,3.0,7.0,57,0.00,,,0.01,Wunderground v.1.15,2013-04-13 00:07:00,
2013-04-12 20:09:00,47.2,32.7,29.92,NW,309,3.0,7.0,57,0.00,,,0.01,Wunderground v.1.15,2013-04-13 00:09:00,
2013-04-12 20:13:00,47.0,32.5,29.92,WNW,301,3.0,3.0,57,0.00,,,0.01,Wunderground v.1.15,2013-04-13 00:13:00,
2013-04-12 20:16:00,47.0,33.0,29.93,West,271,3.0,3.0,58,0.00,,,0.01,Wunderground v.1.15,2013-04-13 00:16:00,
2013-04-12 20:18:00,47.0,32.5,29.93,WNW,289,3.0,4.0,57,0.00,,,0.01,Wunderground v.1.15,2013-04-13 00:18:00,
2013-04-12 20:19:00,47.0,33.0,29.93,NW,315,3.0,4.0,58,0.00,,,0.01,Wunderground v.1.15,2013-04-13 00:19:00,
2013-04-12 20:23:00,46.9,32.9,29.93,NW,326,3.0,5.0,58,0.00,,,0.01,Wunderground v.1.15,2013-04-13 00:23:00,
2013-04-12 20:24:00,46.9,32.9,29.93,WNW,288,3.0,5.0,58,0.00,,,0.01,Wunderground v.1.15,2013-04-13 00:24:00,
2013-04-12 20:26:00,46.9,32.9,29.93,WNW,301,3.0,5.0,58,0.00,,,0.01,Wunderground v.1.15,2013-04-13 00:26:00,
2013-04-12 20:28:00,46.7,32.7,29.93,NW,315,3.0,5.0,58,0.00,,,0.01,Wunderground v.1.15,2013-04-13 00:28:00,
2013-04-12 20:31:00,46.7,32.7,29.93,NW,312,3.0,4.0,58,0.00,,,0.01,Wunderground v.1.15,2013-04-13 00:31:00,
2013-04-12 20:32:00,46.6,32.6,29.93,WNW,291,3.0,4.0,58,0.00,,,0.01,Wunderground v.1.15,2013-04-13 00:32:00,
2013-04-12 20:34:00,46.6,32.6,29.93,West,281,3.0,4.0,58,0.00,,,0.01,Wunderground v.1.15,2013-04-13 00:34:00,
2013-04-12 20:37:00,46.6,32.6,29.93,NW,306,3.0,7.0,58,0.00,,,0.01,Wunderground v.1.15,2013-04-13 00:37:00,
2013-04-12 20:38:00,46.5,32.5,29.93,West,278,3.0,7.0,58,0.00,,,0.01,Wunderground v.1.15,2013-04-13 00:38:00,
2013-04-12 20:44:00,46.3,32.7,29.93,NW,311,3.0,4.0,59,0.00,,,0.01,Wunderground v.1.15,2013-04-13 00:44:00,
2013-04-12 20:45:00,46.3,33.2,29.93,WNW,296,3.0,4.0,60,0.00,,,0.01,Wunderground v.1.15,2013-04-13 00:45:00,
2013-04-12 20:49:00,46.0,32.9,29.93,WNW,287,2.0,6.0,60,0.00,,,0.01,Wunderground v.1.15,2013-04-13 00:49:00,
2013-04-12 20:51:00,46.0,32.9,29.93,WNW,294,2.0,2.0,60,0.00,,,0.01,Wunderground v.1.15,2013-04-13 00:51:00,
2013-04-12 20:52:00,45.9,33.2,29.93,West,275,2.0,2.0,61,0.00,,,0.01,Wunderground v.1.15,2013-04-13 00:52:00,
2013-04-12 20:55:00,45.7,33.0,29.93,WNW,284,3.0,5.0,61,0.00,,,0.01,Wunderground v.1.15,2013-04-13 00:55:00,
2013-04-12 20:57:00,45.7,32.6,29.93,WNW,288,3.0,5.0,60,0.00,,,0.01,Wunderground v.1.15,2013-04-13 00:57:00,
2013-04-12 20:58:00,45.7,32.6,29.93,WNW,302,3.0,5.0,60,0.00,,,0.01,Wunderground v.1.15,2013-04-13 00:58:00,
2013-04-12 21:00:00,45.6,32.5,29.94,WNW,285,3.0,3.0,60,0.00,,,0.01,Wunderground v.1.15,2013-04-13 01:00:00,
2013-04-12 21:01:00,45.6,32.9,29.94,WNW,285,3.0,3.0,61,0.00,,,0.01,Wunderground v.1.15,2013-04-13 01:01:00,
2013-04-12 21:03:00,45.4,32.7,29.94,WNW,285,2.0,3.0,61,0.00,,,0.01,Wunderground v.1.15,2013-04-13 01:03:00,
2013-04-12 21:06:00,45.4,33.1,29.94,WNW,287,1.0,3.0,62,0.00,,,0.01,Wunderground v.1.15,2013-04-13 01:06:00,
2013-04-12 21:09:00,45.3,33.0,29.94,WNW,294,2.0,3.0,62,0.00,,,0.01,Wunderground v.1.15,2013-04-13 01:09:00,
2013-04-12 21:10:00,45.1,32.4,29.94,WNW,294,1.0,1.0,61,0.00,,,0.01,Wunderground v.1.15,2013-04-13 01:10:00,
2013-04-12 21:12:00,45.1,32.8,29.94,WNW,294,1.0,1.0,62,0.00,,,0.01,Wunderground v.1.15,2013-04-13 01:12:00,
2013-04-12 21:13:00,45.1,32.8,29.94,WNW,294,1.0,1.0,62,0.00,,,0.01,Wunderground v.1.15,2013-04-13 01:13:00,
2013-04-12 21:15:00,45.0,32.8,29.94,WNW,294,1.0,1.0,62,0.00,,,0.01,Wunderground v.1.15,2013-04-13 01:15:00,
2013-04-12 21:18:00,44.7,32.9,29.94,WNW,291,1.0,1.0,63,0.00,,,0.01,Wunderground v.1.15,2013-04-13 01:18:00,
2013-04-12 21:19:00,44.7,32.9,29.94,WNW,291,0.0,1.0,63,0.00,,,0.01,Wunderground v.1.15,2013-04-13 01:19:00,
2013-04-12 21:20:00,44.7,32.9,29.94,WNW,289,0.0,1.0,63,0.00,,,0.01,Wunderground v.1.15,2013-04-13 01:20:00,
2013-04-12 21:24:00,44.6,33.2,29.94,WNW,295,1.0,5.0,64,0.00,,,0.01,Wunderground v.1.15,2013-04-13 01:24:00,
2013-04-12 21:25:00,44.4,33.0,29.94,WNW,295,1.0,5.0,64,0.00,,,0.01,Wunderground v.1.15,2013-04-13 01:25:00,
2013-04-12 21:26:00,44.4,33.0,29.94,WNW,295,1.0,5.0,64,0.00,,,0.01,Wunderground v.1.15,2013-04-13 01:26:00,
2013-04-12 21:30:00,44.3,32.9,29.94,West,277,1.0,1.0,64,0.00,,,0.01,Wunderground v.1.15,2013-04-13 01:30:00,
2013-04-12 21:31:00,44.3,32.9,29.94,West,274,1.0,2.0,64,0.00,,,0.01,Wunderground v.1.15,2013-04-13 01:31:00,
2013-04-12 21:32:00,44.3,32.9,29.94,WNW,289,1.0,2.0,64,0.00,,,0.01,Wunderground v.1.15,2013-04-13 01:32:00,
2013-04-12 21:34:00,44.1,32.7,29.94,WNW,289,1.0,2.0,64,0.00,,,0.01,Wunderground v.1.15,2013-04-13 01:34:00,
2013-04-12 21:38:00,44.1,33.1,29.94,NW,323,1.0,2.0,65,0.00,,,0.01,Wunderground v.1.15,2013-04-13 01:38:00,
2013-04-12 21:39:00,44.0,33.0,29.94,NW,323,1.0,2.0,65,0.00,,,0.01,Wunderground v.1.15,2013-04-13 01:39:00,
2013-04-12 21:41:00,44.0,33.0,29.94,NW,308,0.0,1.0,65,0.00,,,0.01,Wunderground v.1.15,2013-04-13 01:41:00,
2013-04-12 21:42:00,44.0,33.0,29.94,NW,309,0.0,1.0,65,0.00,,,0.01,Wunderground v.1.15,2013-04-13 01:42:00,
2013-04-12 21:43:00,43.8,32.8,29.94,NW,308,0.0,1.0,65,0.00,,,0.01,Wunderground v.1.15,2013-04-13 01:43:00,
2013-04-12 21:47:00,43.7,33.1,29.95,NW,306,0.0,1.0,66,0.00,,,0.01,Wunderground v.1.15,2013-04-13 01:47:00,
2013-04-12 21:48:00,43.7,33.1,29.95,NW,306,0.0,1.0,66,0.00,,,0.01,Wunderground v.1.15,2013-04-13 01:48:00,
2013-04-12 21:49:00,43.6,33.0,29.95,NW,306,0.0,1.0,66,0.00,,,0.01,Wunderground v.1.15,2013-04-13 01:49:00,
2013-04-12 21:52:00,43.4,32.8,29.95,NW,306,0.0,0.0,66,0.00,,,0.01,Wunderground v.1.15,2013-04-13 01:52:00,
2013-04-12 21:55:00,43.3,33.1,29.95,NW,306,0.0,0.0,67,0.00,,,0.01,Wunderground v.1.15,2013-04-13 01:55:00,
2013-04-12 21:56:00,43.1,32.9,29.95,NW,306,0.0,0.0,67,0.00,,,0.01,Wunderground v.1.15,2013-04-13 01:56:00,
2013-04-12 21:57:00,43.1,33.3,29.95,NW,306,0.0,0.0,68,0.00,,,0.01,Wunderground v.1.15,2013-04-13 01:57:00,
2013-04-12 22:01:00,42.7,32.9,29.96,NW,306,0.0,0.0,68,0.00,,,0.01,Wunderground v.1.15,2013-04-13 02:01:00,
2013-04-12 22:02:00,42.7,33.2,29.96,NW,305,0.0,0.0,69,0.00,,,0.01,Wunderground v.1.15,2013-04-13 02:02:00,
2013-04-12 22:05:00,42.6,33.1,29.96,WNW,296,0.0,0.0,69,0.00,,,0.01,Wunderground v.1.15,2013-04-13 02:05:00,
2013-04-12 22:08:00,42.4,32.9,29.96,WNW,288,0.0,0.0,69,0.00,,,0.01,Wunderground v.1.15,2013-04-13 02:08:00,
2013-04-12 22:14:00,42.3,32.8,29.96,WNW,291,0.0,1.0,69,0.00,,,0.01,Wunderground v.1.15,2013-04-13 02:14:00,
2013-04-12 22:15:00,42.3,32.8,29.96,WNW,289,0.0,1.0,69,0.00,,,0.01,Wunderground v.1.15,2013-04-13 02:15:00,
2013-04-12 22:17:00,42.1,32.7,29.96,WNW,289,0.0,1.0,69,0.00,,,0.01,Wunderground v.1.15,2013-04-13 02:17:00,
2013-04-12 22:22:00,42.1,32.7,29.96,WNW,289,0.0,1.0,69,0.00,,,0.01,Wunderground v.1.15,2013-04-13 02:22:00,
2013-04-12 22:24:00,42.0,32.6,29.96,WNW,288,0.0,1.0,69,0.00,,,0.01,Wunderground v.1.15,2013-04-13 02:24:00,
2013-04-12 22:28:00,42.0,32.6,29.96,WNW,288,0.0,1.0,69,0.00,,,0.01,Wunderground v.1.15,2013-04-13 02:28:00,
2013-04-12 22:31:00,41.8,32.7,29.96,WNW,288,0.0,0.0,70,0.00,,,0.01,Wunderground v.1.15,2013-04-13 02:31:00,
2013-04-12 22:33:00,41.8,32.7,29.96,WNW,288,0.0,0.0,70,0.00,,,0.01,Wunderground v.1.15,2013-04-13 02:33:00,
2013-04-12 22:35:00,41.7,32.6,29.96,WNW,288,0.0,0.0,70,0.00,,,0.01,Wunderground v.1.15,2013-04-13 02:35:00,
2013-04-12 22:38:00,41.7,32.6,29.96,WNW,287,0.0,1.0,70,0.00,,,0.01,Wunderground v.1.15,2013-04-13 02:38:00,
2013-04-12 22:39:00,41.7,32.6,29.96,WNW,287,0.0,1.0,70,0.00,,,0.01,Wunderground v.1.15,2013-04-13 02:39:00,
2013-04-12 22:42:00,41.6,32.5,29.96,WNW,288,0.0,0.0,70,0.00,,,0.01,Wunderground v.1.15,2013-04-13 02:42:00,
2013-04-12 22:44:00,41.6,32.5,29.96,WNW,288,0.0,0.0,70,0.00,,,0.01,Wunderground v.1.15,2013-04-13 02:44:00,
2013-04-12 22:46:00,41.4,32.7,29.96,WNW,288,0.0,0.0,71,0.00,,,0.01,Wunderground v.1.15,2013-04-13 02:46:00,
2013-04-12 22:47:00,41.4,32.7,29.96,WNW,288,0.0,0.0,71,0.00,,,0.01,Wunderground v.1.15,2013-04-13 02:47:00,
2013-04-12 22:50:00,41.3,32.6,29.96,WNW,288,0.0,0.0,71,0.00,,,0.01,Wunderground v.1.15,2013-04-13 02:50:00,
2013-04-12 22:51:00,41.3,32.6,29.96,WNW,288,0.0,0.0,71,0.00,,,0.01,Wunderground v.1.15,2013-04-13 02:51:00,
2013-04-12 22:52:00,41.3,32.6,29.96,WNW,288,0.0,0.0,71,0.00,,,0.01,Wunderground v.1.15,2013-04-13 02:52:00,
2013-04-12 22:53:00,41.3,32.6,29.96,WNW,288,0.0,0.0,71,0.00,,,0.01,Wunderground v.1.15,2013-04-13 02:53:00,
2013-04-12 22:57:00,41.1,32.4,29.96,WNW,288,0.0,0.0,71,0.00,,,0.01,Wunderground v.1.15,2013-04-13 02:57:00,
2013-04-12 22:59:00,41.1,32.4,29.96,WNW,288,0.0,0.0,71,0.00,,,0.01,Wunderground v.1.15,2013-04-13 02:59:00,
2013-04-12 23:00:00,41.1,32.4,29.97,WNW,288,0.0,0.0,71,0.00,,,0.01,Wunderground v.1.15,2013-04-13 03:00:00,
2013-04-12 23:02:00,41.1,32.4,29.97,WNW,288,0.0,0.0,71,0.00,,,0.01,Wunderground v.1.15,2013-04-13 03:02:00,
2013-04-12 23:05:00,41.1,32.4,29.97,WNW,282,0.0,1.0,71,0.00,,,0.01,Wunderground v.1.15,2013-04-13 03:05:00,
2013-04-12 23:06:00,41.1,32.4,29.97,WNW,282,0.0,1.0,71,0.00,,,0.01,Wunderground v.1.15,2013-04-13 03:06:00,
2013-04-12 23:10:00,41.0,32.3,29.97,West,267,0.0,0.0,71,0.00,,,0.01,Wunderground v.1.15,2013-04-13 03:10:00,
2013-04-12 23:12:00,41.0,32.3,29.97,West,271,0.0,1.0,71,0.00,,,0.01,Wunderground v.1.15,2013-04-13 03:12:00,
2013-04-12 23:14:00,41.0,32.3,29.97,West,265,0.0,1.0,71,0.00,,,0.01,Wunderground v.1.15,2013-04-13 03:14:00,
2013-04-12 23:15:00,41.0,32.3,29.97,West,272,0.0,1.0,71,0.00,,,0.01,Wunderground v.1.15,2013-04-13 03:15:00,
2013-04-12 23:19:00,40.8,32.1,29.97,West,272,0.0,1.0,71,0.00,,,0.01,Wunderground v.1.15,2013-04-13 03:19:00,
2013-04-12 23:20:00,40.8,32.1,29.97,WNW,282,0.0,2.0,71,0.00,,,0.01,Wunderground v.1.15,2013-04-13 03:20:00,
2013-04-12 23:23:00,40.8,32.1,29.97,WNW,284,0.0,2.0,71,0.00,,,0.01,Wunderground v.1.15,2013-04-13 03:23:00,
2013-04-12 23:28:00,40.8,32.5,29.97,WNW,285,1.0,2.0,72,0.00,,,0.01,Wunderground v.1.15,2013-04-13 03:28:00,
2013-04-12 23:30:00,40.8,32.5,29.97,WNW,287,1.0,1.0,72,0.00,,,0.01,Wunderground v.1.15,2013-04-13 03:30:00,
2013-04-12 23:31:00,40.8,32.5,29.97,WNW,287,1.0,1.0,72,0.00,,,0.01,Wunderground v.1.15,2013-04-13 03:31:00,
2013-04-12 23:32:00,40.7,32.4,29.97,WNW,287,1.0,1.0,72,0.00,,,0.01,Wunderground v.1.15,2013-04-13 03:32:00,
2013-04-12 23:33:00,40.7,32.4,29.97,WNW,287,1.0,1.0,72,0.00,,,0.01,Wunderground v.1.15,2013-04-13 03:33:00,
2013-04-12 23:36:00,40.7,32.4,29.97,WNW,287,1.0,1.0,72,0.00,,,0.01,Wunderground v.1.15,2013-04-13 03:36:00,
2013-04-12 23:38:00,40.6,32.3,29.97,WNW,287,0.0,1.0,72,0.00,,,0.01,Wunderground v.1.15,2013-04-13 03:38:00,
2013-04-12 23:41:00,40.6,32.3,29.97,WNW,282,0.0,0.0,72,0.00,,,0.01,Wunderground v.1.15,2013-04-13 03:41:00,
2013-04-12 23:42:00,40.6,32.6,29.97,WNW,282,0.0,0.0,73,0.00,,,0.01,Wunderground v.1.15,2013-04-13 03:42:00,
2013-04-12 23:43:00,40.4,32.4,29.97,WNW,298,0.0,2.0,73,0.00,,,0.01,Wunderground v.1.15,2013-04-13 03:43:00,
2013-04-12 23:44:00,40.4,32.4,29.97,WNW,298,0.0,2.0,73,0.00,,,0.01,Wunderground v.1.15,2013-04-13 03:44:00,
2013-04-12 23:48:00,40.4,32.4,29.98,WNW,287,0.0,2.0,73,0.00,,,0.01,Wunderground v.1.15,2013-04-13 03:48:00,
2013-04-12 23:49:00,40.3,32.3,29.98,WNW,287,0.0,2.0,73,0.00,,,0.01,Wunderground v.1.15,2013-04-13 03:49:00,
2013-04-12 23:50:00,40.3,32.3,29.98,WNW,284,0.0,1.0,73,0.00,,,0.01,Wunderground v.1.15,2013-04-13 03:50:00,
2013-04-12 23:55:00,40.3,32.3,29.98,WNW,284,0.0,1.0,73,0.00,,,0.01,Wunderground v.1.15,2013-04-13 03:55:00,
2013-04-12 23:56:00,40.3,32.3,29.98,WNW,287,0.0,1.0,73,0.00,,,0.01,Wunderground v.1.15,2013-04-13 03:56:00,
2013-04-12 23:58:00,40.1,32.5,29.98,West,272,0.0,1.0,74,0.00,,,0.01,Wunderground v.1.15,2013-04-13 03:58:00,
2013-04-12 23:59:00,40.1,32.5,29.98,West,275,0.0,1.0,74,0.00,,,0.01,Wunderground v.1.15,2013-04-13 03:59:00,